EW4266 Weather Reports


time (UTC)temp
C
wind
direction
speed
KPH
gust
KPH
rain 1hr
cm
rain 24hr
cm
rain mn
cm
humidity
%
barometer
mb
20260902123340 20 168 8.0 12.9 0.00 0.00 0.00 77 1019.1
20260902123254 20 169 8.0 12.9 0.00 0.00 0.00 77 1019.2
20260902123043 20 209 6.4 12.9 0.00 0.00 0.00 77 1019.1
20260902122941 20 149 6.4 12.9 0.00 0.00 0.00 78 1019.0
20260902122824 20 168 6.4 12.9 0.00 0.00 0.00 77 1019.1
20260902122744 20 175 8.0 12.9 0.00 0.00 0.00 78 1019.0
20260902122615 20 196 6.4 12.9 0.00 0.00 0.00 77 1019.1
20260902122527 20 173 6.4 12.9 0.00 0.00 0.00 78 1019.1
20260902122357 20 147 6.4 12.9 0.00 0.00 0.00 78 1019.1
20260902122320 20 173 3.2 14.5 0.00 0.00 0.00 80 1019.1
20260902122123 20 140 1.6 4.8 0.00 0.00 0.00 80 1019.1
20260902122026 20 163 1.6 4.8 0.00 0.00 0.00 82 1019.1
20260902121904 20 162 1.6 4.8 0.00 0.00 0.00 81 1019.2
20260902121830 20 162 1.6 4.8 0.00 0.00 0.00 81 1019.2
20260902121632 19 162 1.6 6.4 0.00 0.00 0.00 80 1019.2
20260902121533 19 155 0.0 4.8 0.00 0.00 0.00 80 1019.2
20260902121437 19 151 0.0 4.8 0.00 0.00 0.00 81 1019.2
20260902121357 19 151 0.0 4.8 0.00 0.00 0.00 81 1019.2
20260902121319 19 151 1.6 4.8 0.00 0.00 0.00 80 1019.2
20260902121142 19 151 0.0 4.8 0.00 0.00 0.00 81 1019.2
20260902121103 19 151 0.0 4.8 0.00 0.00 0.00 81 1019.2
20260902121029 19 151 1.6 4.8 0.00 0.00 0.00 81 1019.2
20260902120908 19 151 1.6 4.8 0.00 0.00 0.00 81 1019.3
20260902120834 19 152 1.6 4.8 0.00 0.00 0.00 81 1019.3
20260902120636 19 152 1.6 3.2 0.00 0.00 0.00 80 1019.4
20260902120540 19 152 1.6 3.2 0.00 0.00 0.00 81 1019.4
20260902120439 19 152 1.6 4.8 0.00 0.00 0.00 82 1019.4
20260902120340 19 152 1.6 4.8 0.00 0.00 0.00 82 1019.4
20260902120209 19 152 1.6 4.8 0.00 0.00 0.00 81 1019.5
20260902120124 19 152 1.6 4.8 0.00 0.00 0.00 81 1019.5
20260902115935 19 151 0.0 4.8 0.00 0.00 0.00 82 1019.4
20260902115829 19 151 0.0 4.8 0.00 0.00 0.00 81 1019.4
20260902115755 19 151 0.0 4.8 0.00 0.00 0.00 81 1019.4
20260902115657 19 151 1.6 4.8 0.00 0.00 0.00 81 1019.4
20260902115619 19 151 1.6 4.8 0.00 0.00 0.00 81 1019.4
20260902115447 19 189 1.6 4.8 0.00 0.00 0.00 81 1019.4
20260902115342 19 162 3.2 4.8 0.00 0.00 0.00 81 1019.4
20260902115225 19 162 3.2 4.8 0.00 0.00 0.00 81 1019.4
20260902115146 19 146 1.6 4.8 0.00 0.00 0.00 81 1019.3
20260902115108 19 180 1.6 4.8 0.00 0.00 0.00 81 1019.3
20260902115010 19 180 0.0 4.8 0.00 0.00 0.00 82 1019.3
20260902114932 19 180 0.0 4.8 0.00 0.00 0.00 82 1019.3
20260902114719 19 213 0.0 4.8 0.00 0.00 0.00 82 1019.4
20260902114624 19 213 1.6 4.8 0.00 0.00 0.00 81 1019.4
20260902114525 19 213 1.6 4.8 0.00 0.00 0.00 81 1019.4
20260902114447 19 211 1.6 4.8 0.00 0.00 0.00 82 1019.4
20260902114328 19 211 1.6 4.8 0.00 0.00 0.00 81 1019.4
20260902114250 19 207 0.0 4.8 0.00 0.00 0.00 82 1019.4
20260902114056 19 207 0.0 4.8 0.00 0.00 0.00 82 1019.3
20260902114012 19 207 0.0 4.8 0.00 0.00 0.00 82 1019.3
20260902113800 19 207 0.0 4.8 0.00 0.00 0.00 81 1019.3
20260902113722 18 225 0.0 4.8 0.00 0.00 0.00 82 1019.3
20260902113528 18 225 1.6 4.8 0.00 0.00 0.00 82 1019.3
20260902113449 18 225 3.2 4.8 0.00 0.00 0.00 82 1019.3
20260902113332 18 224 1.6 4.8 0.00 0.00 0.00 83 1019.4
20260902113253 18 158 0.0 1.6 0.00 0.00 0.00 85 1019.3
20260902113034 18 158 0.0 1.6 0.00 0.00 0.00 83 1019.2
20260902112935 18 158 0.0 1.6 0.00 0.00 0.00 84 1019.3
20260902112836 18 158 0.0 1.6 0.00 0.00 0.00 84 1019.3
20260902112758 18 158 0.0 0.0 0.00 0.00 0.00 85 1019.3
20260902112628 18 158 0.0 0.0 0.00 0.00 0.00 84 1019.3
20260902112527 18 158 0.0 0.0 0.00 0.00 0.00 83 1019.3
20260902112356 18 158 0.0 0.0 0.00 0.00 0.00 83 1019.3
20260902112317 18 158 0.0 0.0 0.00 0.00 0.00 84 1019.3
20260902112159 18 158 0.0 0.0 0.00 0.00 0.00 84 1019.3
20260902112122 18 158 0.0 0.0 0.00 0.00 0.00 84 1019.3
20260902112044 18 158 0.0 0.0 0.00 0.00 0.00 83 1019.3
20260902111908 18 158 0.0 0.0 0.00 0.00 0.00 85 1019.3
20260902111829 18 158 0.0 0.0 0.00 0.00 0.00 84 1019.3
20260902111659 18 158 0.0 0.0 0.00 0.00 0.00 85 1019.4
20260902111531 18 158 0.0 0.0 0.00 0.00 0.00 85 1019.4
20260902111433 18 158 0.0 3.2 0.00 0.00 0.00 84 1019.4
20260902111330 18 158 0.0 3.2 0.00 0.00 0.00 84 1019.4
20260902111250 18 158 0.0 3.2 0.00 0.00 0.00 84 1019.4
20260902111154 18 158 0.0 3.2 0.00 0.00 0.00 84 1019.4
20260902111117 18 158 0.0 3.2 0.00 0.00 0.00 83 1019.4
20260902110946 18 158 0.0 3.2 0.00 0.00 0.00 83 1019.4
20260902110841 18 158 0.0 3.2 0.00 0.00 0.00 84 1019.4
20260902110724 18 158 0.0 3.2 0.00 0.00 0.00 83 1019.3
20260902110644 18 158 0.0 3.2 0.00 0.00 0.00 83 1019.3
20260902110606 18 158 0.0 3.2 0.00 0.00 0.00 84 1019.4
20260902110510 18 158 0.0 1.6 0.00 0.00 0.00 84 1019.4
20260902110437 18 158 0.0 1.6 0.00 0.00 0.00 84 1019.4
20260902110307 18 158 0.0 1.6 0.00 0.00 0.00 83 1019.4
20260902110229 18 158 0.0 1.6 0.00 0.00 0.00 83 1019.4
20260902110031 18 158 0.0 3.2 0.00 0.00 0.00 84 1019.5
20260902105952 18 158 0.0 3.2 0.00 0.00 0.00 83 1019.4
20260902105855 18 158 0.0 3.2 0.00 0.05 0.00 84 1019.4
20260902105817 18 158 0.0 3.2 0.00 0.05 0.00 84 1019.4
20260902105646 18 158 0.0 3.2 0.00 0.05 0.00 84 1019.4
20260902105540 18 158 0.0 3.2 0.00 0.05 0.00 83 1019.4
20260902105440 18 158 0.0 3.2 0.00 0.05 0.00 83 1019.4
20260902105354 18 158 0.0 3.2 0.00 0.05 0.00 83 1019.4
20260902105322 18 158 0.0 3.2 0.00 0.05 0.00 83 1019.4
20260902105243 18 158 0.0 1.6 0.00 0.05 0.00 84 1019.4
20260902105105 18 158 0.0 1.6 0.00 0.05 0.00 84 1019.4
20260902105027 18 158 0.0 1.6 0.00 0.05 0.00 84 1019.4
20260902104838 18 158 0.0 1.6 0.00 0.05 0.00 84 1019.4
20260902104720 18 158 0.0 1.6 0.00 0.05 0.00 83 1019.4
20260902104651 18 158 0.0 3.2 0.00 0.05 0.00 83 1019.4
20260902104554 18 158 0.0 3.2 0.00 0.05 0.00 83 1019.3
20260902104514 18 158 0.0 3.2 0.00 0.05 0.00 82 1019.4
20260902104414 18 158 0.0 3.2 0.00 0.05 0.00 82 1019.4
20260902104319 18 158 0.0 3.2 0.00 0.05 0.00 83 1019.3
20260902104244 18 158 0.0 3.2 0.00 0.05 0.00 83 1019.3
20260902104115 18 158 0.0 3.2 0.00 0.05 0.00 83 1019.2
20260902104009 18 158 0.0 4.8 0.00 0.05 0.00 83 1019.2
20260902103816 18 158 0.0 4.8 0.00 0.05 0.00 83 1019.2
20260902103738 18 158 0.0 4.8 0.00 0.05 0.00 83 1019.2
20260902103606 18 158 0.0 4.8 0.00 0.05 0.00 82 1019.2
20260902103531 18 158 1.6 4.8 0.00 0.05 0.00 82 1019.2
20260902103401 18 158 1.6 4.8 0.00 0.05 0.00 83 1019.1
20260902103322 18 158 3.2 4.8 0.00 0.05 0.00 83 1019.1
20260902103053 18 159 1.6 4.8 0.00 0.05 0.00 82 1019.1
20260902103027 18 159 1.6 4.8 0.00 0.05 0.00 83 1019.1
20260902102855 18 204 0.0 4.8 0.00 0.05 0.00 83 1019.2
20260902102749 18 204 1.6 4.8 0.00 0.05 0.00 83 1019.2
20260902102622 18 204 1.6 6.4 0.00 0.05 0.00 84 1019.2
20260902102523 18 178 1.6 6.4 0.00 0.05 0.00 83 1019.2
20260902102326 18 178 1.6 6.4 0.00 0.05 0.00 83 1019.2
20260902102248 18 178 1.6 6.4 0.00 0.05 0.00 83 1019.1
20260902102131 18 171 1.6 6.4 0.00 0.05 0.00 82 1019.1
20260902102051 18 169 0.0 6.4 0.00 0.05 0.00 84 1019.1
20260902102013 18 169 1.6 6.4 0.00 0.05 0.00 83 1019.0
20260902101853 18 169 3.2 6.4 0.00 0.05 0.00 82 1019.0
20260902101753 18 169 3.2 6.4 0.00 0.05 0.00 83 1019.0
20260902101715 18 175 1.6 4.8 0.00 0.05 0.00 83 1019.0
20260902101619 18 154 1.6 4.8 0.00 0.05 0.00 83 1019.0
20260902101544 18 154 0.0 6.4 0.00 0.05 0.00 83 1019.0
20260902101415 18 154 1.6 6.4 0.00 0.05 0.00 83 1019.0
20260902101329 18 154 1.6 6.4 0.00 0.05 0.00 83 1019.0
20260902101140 18 151 3.2 6.4 0.00 0.05 0.00 83 1019.0
20260902101035 18 146 1.6 6.4 0.00 0.05 0.00 83 1019.0
20260902100929 18 174 1.6 6.4 0.00 0.05 0.00 83 1019.0
20260902100831 18 169 1.6 6.4 0.00 0.05 0.00 83 1019.0
20260902100731 18 169 1.6 6.4 0.00 0.05 0.00 83 1019.0
20260902100636 18 174 1.6 4.8 0.00 0.05 0.00 83 1019.0
20260902100557 18 174 1.6 4.8 0.00 0.05 0.00 84 1018.9
20260902100500 18 174 0.0 4.8 0.00 0.05 0.00 83 1019.0
20260902100422 18 174 0.0 4.8 0.00 0.05 0.00 83 1019.0
20260902100224 18 174 1.6 4.8 0.00 0.05 0.00 83 1018.9
20260902100125 18 161 0.0 4.8 0.00 0.05 0.00 83 1019.0
20260902100029 18 161 1.6 4.8 0.00 0.05 0.00 83 1018.9
20260902095951 18 161 1.6 4.8 0.00 0.05 0.00 83 1018.9
20260902095820 18 191 1.6 4.8 0.00 0.05 0.00 83 1018.9
20260902095734 18 191 1.6 4.8 0.00 0.05 0.00 83 1018.9
20260902095602 18 191 1.6 4.8 0.00 0.05 0.00 83 1018.9
20260902095529 18 194 1.6 4.8 0.00 0.05 0.00 83 1018.9
20260902095331 18 171 1.6 4.8 0.00 0.05 0.00 83 1018.8
20260902095252 18 171 3.2 4.8 0.00 0.05 0.00 83 1018.8
20260902095155 18 179 3.2 4.8 0.00 0.05 0.00 83 1018.8
20260902095036 18 186 1.6 4.8 0.00 0.05 0.00 84 1018.8
20260902094958 18 165 0.0 4.8 0.00 0.05 0.00 84 1018.8
20260902094900 18 165 0.0 8.0 0.00 0.05 0.00 84 1018.8
20260902094822 18 165 0.0 8.0 0.00 0.05 0.00 84 1018.8
20260902094626 18 165 1.6 8.0 0.00 0.05 0.00 83 1018.7
20260902094532 18 165 1.6 8.0 0.00 0.05 0.00 84 1018.8
20260902094436 18 159 3.2 8.0 0.00 0.05 0.00 84 1018.7
20260902094336 18 157 3.2 8.0 0.00 0.05 0.00 84 1018.7
20260902094207 18 200 3.2 8.0 0.00 0.05 0.00 85 1018.7
20260902094121 18 194 3.2 8.0 0.00 0.05 0.00 85 1018.7
20260902093931 18 171 1.6 3.2 0.00 0.05 0.00 84 1018.8
20260902093847 18 171 0.0 3.2 0.00 0.05 0.00 84 1018.8
20260902093715 18 193 0.0 3.2 0.00 0.05 0.00 84 1018.8
20260902093638 18 193 0.0 3.2 0.00 0.05 0.00 85 1018.8
20260902093440 18 193 0.0 3.2 0.00 0.05 0.00 85 1018.9
20260902093346 18 192 0.0 3.2 0.00 0.05 0.00 85 1018.9
20260902093251 18 191 0.0 3.2 0.00 0.05 0.00 85 1018.9
20260902093212 18 191 0.0 3.2 0.00 0.05 0.00 85 1018.9
20260902093112 18 191 0.0 3.2 0.00 0.05 0.00 85 1018.9
20260902093014 18 191 1.6 3.2 0.00 0.05 0.00 85 1018.9
20260902092936 18 191 1.6 3.2 0.00 0.05 0.00 85 1018.9
20260902092806 18 163 1.6 3.2 0.00 0.05 0.00 84 1018.9
20260902092722 18 165 0.0 4.8 0.00 0.05 0.00 86 1018.9
20260902092644 18 148 0.0 1.6 0.00 0.05 0.00 86 1018.9
20260902092513 18 148 0.0 1.6 0.00 0.05 0.00 85 1018.8
20260902092428 18 148 0.0 1.6 0.00 0.05 0.00 86 1018.8
20260902092259 18 148 0.0 1.6 0.00 0.05 0.00 85 1018.8
20260902092220 18 148 0.0 1.6 0.00 0.05 0.00 86 1018.8
20260902092027 18 148 0.0 1.6 0.00 0.05 0.00 86 1018.8
20260902091929 18 148 0.0 1.6 0.00 0.05 0.00 86 1018.8
20260902091833 18 148 0.0 1.6 0.00 0.05 0.00 86 1018.8
20260902091755 18 148 0.0 1.6 0.00 0.05 0.00 86 1018.7
20260902091604 18 148 0.0 0.0 0.00 0.05 0.00 86 1018.7
20260902091520 18 148 0.0 1.6 0.00 0.05 0.00 86 1018.7
20260902091319 18 148 0.0 1.6 0.00 0.05 0.00 86 1018.7
20260902091141 18 148 0.0 1.6 0.00 0.05 0.00 86 1018.8
20260902091042 18 148 0.0 3.2 0.00 0.05 0.00 86 1018.8
20260902090928 18 148 0.0 3.2 0.00 0.05 0.00 85 1018.8
20260902090859 18 148 0.0 4.8 0.00 0.05 0.00 86 1018.8
20260902090758 18 148 0.0 4.8 0.00 0.05 0.00 85 1018.8
20260902090641 18 148 0.0 4.8 0.00 0.05 0.00 85 1018.8
20260902090541 18 148 0.0 4.8 0.00 0.05 0.00 85 1018.8
20260902090456 18 148 0.0 4.8 0.00 0.05 0.00 86 1018.8
20260902090428 18 148 0.0 4.8 0.00 0.05 0.00 85 1018.8
20260902090226 18 175 1.6 4.8 0.00 0.05 0.00 85 1018.8
20260902090120 18 175 1.6 4.8 0.00 0.05 0.00 85 1018.7
20260902085948 18 159 1.6 4.8 0.00 0.05 0.00 86 1018.7
20260902085849 18 159 0.0 4.8 0.00 0.05 0.00 86 1018.7
20260902085715 18 159 0.0 4.8 0.00 0.05 0.00 87 1018.7
20260902085648 18 159 0.0 4.8 0.00 0.05 0.00 86 1018.7
20260902085510 18 159 0.0 4.8 0.00 0.05 0.00 86 1018.6
20260902085433 18 159 0.0 4.8 0.00 0.05 0.00 86 1018.6
20260902085305 18 159 1.6 4.8 0.00 0.05 0.00 85 1018.6
20260902085201 18 159 0.0 4.8 0.00 0.05 0.00 86 1018.6
20260902085043 18 159 0.0 3.2 0.00 0.05 0.00 87 1018.6
20260902085003 18 159 0.0 3.2 0.00 0.05 0.00 86 1018.5
20260902084903 18 159 0.0 3.2 0.00 0.05 0.00 86 1018.6
20260902084806 18 159 0.0 3.2 0.00 0.05 0.00 86 1018.6
20260902084727 18 159 0.0 3.2 0.00 0.05 0.00 86 1018.6
20260902084557 18 159 0.0 3.2 0.00 0.05 0.00 86 1018.6
20260902084517 18 159 0.0 3.2 0.00 0.05 0.00 86 1018.6
20260902084347 18 159 0.0 3.2 0.00 0.05 0.00 86 1018.6
20260902084308 18 159 0.0 3.2 0.00 0.05 0.00 86 1018.7
20260902084137 18 159 0.0 3.2 0.00 0.05 0.00 86 1018.7
20260902084032 18 159 0.0 3.2 0.00 0.05 0.00 86 1018.7
20260902083911 18 159 1.6 3.2 0.00 0.05 0.00 85 1018.7
20260902083833 18 159 0.0 3.2 0.00 0.05 0.00 86 1018.7
20260902083635 18 159 0.0 4.8 0.00 0.05 0.00 86 1018.7
20260902083556 18 159 0.0 4.8 0.00 0.05 0.00 86 1018.7
20260902083458 18 159 0.0 4.8 0.00 0.05 0.00 85 1018.7
20260902083358 18 159 0.0 4.8 0.00 0.05 0.00 85 1018.6
20260902083224 18 159 0.0 4.8 0.00 0.05 0.00 85 1018.6
20260902083144 18 159 1.6 4.8 0.00 0.05 0.00 85 1018.6
20260902083105 18 159 1.6 4.8 0.00 0.05 0.00 85 1018.6
20260902083007 18 159 3.2 4.8 0.00 0.05 0.00 85 1018.7
20260902082928 18 159 3.2 4.8 0.00 0.05 0.00 85 1018.7
20260902082747 18 158 0.0 4.8 0.00 0.05 0.00 86 1018.6
20260902082641 18 158 0.0 4.8 0.00 0.05 0.00 86 1018.6
20260902082510 18 158 0.0 4.8 0.00 0.05 0.00 85 1018.6
20260902082431 18 158 0.0 4.8 0.00 0.05 0.00 85 1018.6
20260902082208 18 158 1.6 4.8 0.00 0.05 0.00 85 1018.7
20260902082123 18 158 1.6 4.8 0.00 0.05 0.00 85 1018.7
20260902081932 18 182 1.6 4.8 0.00 0.05 0.00 86 1018.7
20260902081830 18 182 1.6 4.8 0.00 0.05 0.00 86 1018.7
20260902081751 18 182 3.2 4.8 0.00 0.05 0.00 86 1018.6
20260902081654 18 182 3.2 4.8 0.00 0.05 0.00 86 1018.7
20260902081616 18 182 3.2 4.8 0.00 0.05 0.00 86 1018.6
20260902081419 18 167 1.6 3.2 0.00 0.05 0.00 86 1018.6
20260902081330 18 167 0.0 4.8 0.00 0.05 0.00 86 1018.7
20260902081233 18 167 0.0 1.6 0.00 0.05 0.00 86 1018.7
20260902081155 18 167 0.0 1.6 0.00 0.05 0.00 86 1018.7
20260902081004 18 167 0.0 1.6 0.00 0.05 0.00 86 1018.8
20260902080921 18 167 0.0 4.8 0.00 0.05 0.00 86 1018.8
20260902080803 18 167 0.0 4.8 0.00 0.05 0.00 86 1018.8
20260902080703 18 167 0.0 4.8 0.00 0.05 0.00 86 1018.7
20260902080526 18 167 0.0 4.8 0.00 0.05 0.00 86 1018.7
20260902080448 18 167 0.0 4.8 0.00 0.05 0.00 86 1018.7
20260902080318 18 167 0.0 4.8 0.00 0.05 0.00 86 1018.7
20260902080234 18 167 0.0 4.8 0.00 0.05 0.00 86 1018.7
20260902080042 18 167 1.6 6.4 0.00 0.05 0.00 86 1018.7
20260902075957 18 167 1.6 4.8 0.00 0.05 0.00 86 1018.7
20260902075856 18 167 1.6 4.8 0.00 0.05 0.00 86 1018.7
20260902075817 18 169 1.6 6.4 0.00 0.05 0.00 87 1018.7
20260902075700 18 190 0.0 3.2 0.00 0.05 0.00 87 1018.7
20260902075626 18 190 0.0 3.2 0.00 0.05 0.00 87 1018.7
20260902075456 18 190 0.0 0.0 0.00 0.05 0.00 87 1018.7
20260902075418 18 190 0.0 0.0 0.00 0.05 0.00 87 1018.8
20260902075240 18 190 0.0 0.0 0.00 0.05 0.00 87 1018.8
20260902075140 18 190 0.0 0.0 0.00 0.05 0.00 87 1018.8
20260902075044 18 190 0.0 0.0 0.00 0.05 0.00 87 1018.9
20260902075006 18 190 0.0 0.0 0.00 0.05 0.00 87 1018.9
20260902074815 18 190 0.0 0.0 0.00 0.05 0.00 87 1018.9
20260902074731 18 190 0.0 0.0 0.00 0.05 0.00 87 1018.9
20260902074600 18 190 0.0 0.0 0.00 0.05 0.00 86 1018.9
20260902074523 18 190 0.0 0.0 0.00 0.05 0.00 86 1018.9
20260902074331 18 190 0.0 0.0 0.00 0.05 0.00 86 1018.8
20260902074251 18 190 0.0 0.0 0.00 0.05 0.00 86 1018.8
20260902074136 18 190 0.0 0.0 0.00 0.05 0.00 86 1018.8
20260902074057 18 190 0.0 0.0 0.00 0.05 0.00 86 1018.8
20260902073958 18 190 0.0 0.0 0.00 0.05 0.00 86 1018.8
20260902073842 19 190 0.0 0.0 0.00 0.05 0.00 86 1018.8
20260902073804 19 190 0.0 0.0 0.00 0.05 0.00 86 1018.8
20260902073624 19 190 0.0 0.0 0.00 0.05 0.00 86 1018.9
20260902073526 19 190 0.0 0.0 0.00 0.05 0.00 86 1018.8
20260902073427 19 190 0.0 0.0 0.00 0.05 0.00 86 1018.8
20260902073323 19 190 0.0 0.0 0.00 0.05 0.00 85 1018.9
20260902073224 19 190 0.0 0.0 0.00 0.05 0.00 85 1018.9
20260902073126 19 190 0.0 0.0 0.00 0.05 0.00 85 1018.8
20260902073046 19 190 0.0 1.6 0.00 0.05 0.00 85 1018.8
20260902073007 19 190 0.0 3.2 0.00 0.05 0.00 84 1018.8
20260902072910 19 190 0.0 3.2 0.00 0.05 0.00 84 1018.8
20260902072832 19 190 0.0 3.2 0.00 0.05 0.00 84 1018.8
20260902072635 19 190 0.0 3.2 0.00 0.05 0.00 84 1018.9
20260902072535 19 190 0.0 4.8 0.00 0.05 0.00 84 1018.8
20260902072459 19 190 0.0 4.8 0.00 0.05 0.00 84 1018.8
20260902072421 19 190 0.0 4.8 0.00 0.05 0.00 84 1018.8
20260902072336 19 190 0.0 4.8 0.00 0.05 0.00 83 1018.8
20260902072205 19 190 1.6 4.8 0.00 0.05 0.00 83 1018.8
20260902072128 19 190 1.6 4.8 0.00 0.05 0.00 83 1018.8
20260902071930 19 190 0.0 4.8 0.00 0.05 0.00 84 1018.8
20260902071850 19 190 1.6 4.8 0.00 0.05 0.00 83 1018.9
20260902071733 19 190 1.6 4.8 0.00 0.05 0.00 83 1018.8
20260902071654 19 166 0.0 3.2 0.00 0.05 0.00 84 1018.8
20260902071528 19 166 0.0 3.2 0.00 0.05 0.00 83 1018.9
20260902071506 19 165 0.0 3.2 0.00 0.05 0.00 83 1018.8
20260902071348 19 165 0.0 3.2 0.00 0.05 0.00 83 1018.9
20260902071311 19 165 0.0 3.2 0.00 0.05 0.00 83 1018.8
20260902071130 19 165 1.6 3.2 0.00 0.05 0.00 83 1018.8
20260902071031 19 165 0.0 4.8 0.00 0.05 0.00 83 1018.8
20260902070834 19 165 0.0 3.2 0.00 0.05 0.00 83 1018.8
20260902070755 19 166 1.6 4.8 0.00 0.05 0.00 83 1018.8
20260902070700 19 166 1.6 6.4 0.00 0.05 0.00 83 1018.8
20260902070621 19 165 1.6 6.4 0.00 0.05 0.00 83 1018.9
20260902070430 19 158 0.0 6.4 0.00 0.05 0.00 83 1018.8
20260902070324 19 158 1.6 6.4 0.00 0.05 0.00 83 1018.8
20260902070139 19 158 1.6 8.0 0.00 0.05 0.00 83 1018.7
20260902070101 19 158 3.2 8.0 0.00 0.05 0.00 83 1018.7
20260902065941 19 158 4.8 8.0 0.00 0.05 0.00 84 1018.7
20260902065839 18 161 3.2 8.0 0.00 0.05 0.00 84 1018.7
20260902065707 18 164 0.0 8.0 0.00 0.05 0.00 85 1018.7
20260902065624 18 184 1.6 8.0 0.00 0.05 0.00 85 1018.7
20260902065453 18 184 3.2 8.0 0.00 0.05 0.00 85 1018.7
20260902065415 18 188 3.2 8.0 0.00 0.05 0.00 86 1018.7
20260902065240 18 219 3.2 6.4 0.00 0.05 0.00 86 1018.7
20260902065138 18 209 3.2 6.4 0.00 0.05 0.00 86 1018.7
20260902065023 18 209 1.6 6.4 0.00 0.05 0.00 87 1018.7
20260902064948 18 215 1.6 4.8 0.00 0.05 0.00 87 1018.7
20260902064810 18 169 0.0 0.0 0.00 0.05 0.00 87 1018.6
20260902064731 18 169 0.0 0.0 0.00 0.05 0.00 87 1018.6
20260902064542 18 169 0.0 0.0 0.00 0.05 0.00 88 1018.6
20260902064434 18 169 0.0 0.0 0.00 0.05 0.00 87 1018.6
20260902064355 18 169 0.0 0.0 0.00 0.05 0.00 89 1018.6
20260902064257 18 241 0.0 0.0 0.00 0.05 0.00 88 1018.6
20260902064219 18 241 0.0 0.0 0.00 0.05 0.00 89 1018.7
20260902064050 18 241 0.0 0.0 0.00 0.05 0.00 89 1018.7
20260902063945 18 241 0.0 0.0 0.00 0.05 0.00 88 1018.7
20260902063813 18 241 0.0 0.0 0.00 0.05 0.00 88 1018.7
20260902063739 18 241 0.0 0.0 0.00 0.05 0.00 88 1018.7
20260902063541 18 241 0.0 0.0 0.00 0.05 0.00 89 1018.7
20260902063502 18 241 0.0 0.0 0.00 0.05 0.00 88 1018.8
20260902063404 18 241 0.0 0.0 0.00 0.05 0.00 88 1018.8
20260902063326 18 241 0.0 0.0 0.00 0.05 0.00 88 1018.8
20260902063138 18 241 0.0 0.0 0.00 0.05 0.00 89 1018.8
20260902063031 18 241 0.0 0.0 0.00 0.05 0.00 88 1018.9
20260902062951 18 241 0.0 0.0 0.00 0.05 0.00 88 1018.8
20260902062855 18 241 0.0 0.0 0.00 0.05 0.00 88 1018.8
20260902062817 18 241 0.0 0.0 0.00 0.05 0.00 88 1018.8
20260902062623 18 241 0.0 0.0 0.00 0.05 0.00 88 1018.8
20260902062524 18 241 0.0 0.0 0.00 0.05 0.00 88 1018.8
20260902062428 18 241 0.0 0.0 0.00 0.05 0.00 88 1018.8
20260902062349 18 241 0.0 0.0 0.00 0.05 0.00 88 1018.8
20260902062218 18 241 0.0 0.0 0.00 0.05 0.00 88 1018.8
20260902062132 18 241 0.0 0.0 0.00 0.05 0.00 88 1018.8
20260902061942 18 241 0.0 0.0 0.00 0.05 0.00 88 1018.8
20260902061856 18 241 0.0 0.0 0.00 0.05 0.00 88 1018.8
20260902061704 18 241 0.0 0.0 0.00 0.05 0.00 88 1018.8
20260902061626 18 241 0.0 0.0 0.00 0.05 0.00 88 1018.8
20260902061459 18 241 0.0 0.0 0.00 0.05 0.00 88 1018.7
20260902061413 18 241 0.0 0.0 0.00 0.05 0.00 88 1018.8
20260902061131 18 241 0.0 0.0 0.00 0.05 0.00 88 1018.7
20260902061025 18 241 0.0 0.0 0.00 0.05 0.00 87 1018.7
20260902060947 18 241 0.0 0.0 0.00 0.05 0.00 87 1018.7
20260902060849 18 241 0.0 0.0 0.00 0.05 0.00 87 1018.6
20260902060729 18 241 0.0 0.0 0.00 0.05 0.00 87 1018.6
20260902060632 18 241 0.0 0.0 0.00 0.05 0.00 88 1018.6
20260902060532 18 241 0.0 0.0 0.00 0.05 0.00 87 1018.6
20260902060403 18 241 0.0 0.0 0.00 0.05 0.00 87 1018.6
20260902060322 18 241 0.0 0.0 0.00 0.05 0.00 87 1018.6
20260902060132 18 241 0.0 0.0 0.00 0.05 0.00 88 1018.5
20260902060047 18 241 0.0 0.0 0.00 0.05 0.00 88 1018.6
20260902055856 18 241 0.0 0.0 0.00 0.05 0.00 88 1018.5
20260902055819 18 241 0.0 0.0 0.00 0.05 0.00 88 1018.5
20260902055649 18 241 0.0 0.0 0.00 0.05 0.00 88 1018.5
20260902055543 18 241 0.0 0.0 0.00 0.05 0.00 88 1018.5
20260902055437 18 241 0.0 0.0 0.00 0.05 0.00 87 1018.5
20260902055359 18 241 0.0 0.0 0.00 0.05 0.00 87 1018.6
20260902055226 18 241 0.0 0.0 0.00 0.05 0.00 87 1018.5
20260902055148 18 241 0.0 0.0 0.00 0.05 0.00 88 1018.5
20260902055018 18 241 0.0 0.0 0.00 0.05 0.00 88 1018.6
20260902054932 18 241 0.0 0.0 0.00 0.05 0.00 87 1018.6
20260902054741 18 241 0.0 0.0 0.00 0.05 0.00 86 1018.6
20260902054706 18 241 0.0 0.0 0.00 0.05 0.00 86 1018.6
20260902054514 18 241 0.0 0.0 0.00 0.05 0.00 86 1018.6
20260902054416 18 241 0.0 0.0 0.00 0.05 0.00 86 1018.6
20260902054238 18 241 0.0 0.0 0.00 0.05 0.00 86 1018.6
20260902054140 18 241 0.0 0.0 0.00 0.05 0.00 86 1018.6
20260902054028 18 241 0.0 0.0 0.00 0.05 0.00 86 1018.6
20260902053949 18 241 0.0 0.0 0.00 0.05 0.00 86 1018.6
20260902053820 18 241 0.0 0.0 0.00 0.05 0.00 86 1018.5
20260902053734 18 241 0.0 0.0 0.00 0.05 0.00 86 1018.5
20260902053544 18 241 0.0 0.0 0.00 0.05 0.00 85 1018.6
20260902053441 18 241 0.0 0.0 0.00 0.05 0.00 85 1018.6
20260902053323 18 241 0.0 0.0 0.00 0.05 0.00 86 1018.6
20260902053245 18 241 0.0 0.0 0.00 0.05 0.00 86 1018.6
20260902053115 18 241 0.0 0.0 0.00 0.05 0.00 84 1018.6
20260902053031 18 241 0.0 0.0 0.00 0.05 0.00 85 1018.6
20260902052904 19 241 0.0 0.0 0.00 0.05 0.00 85 1018.5
20260902052826 18 241 0.0 0.0 0.00 0.05 0.00 85 1018.5
20260902052629 18 241 0.0 0.0 0.00 0.05 0.00 85 1018.5
20260902052551 18 241 0.0 0.0 0.00 0.05 0.00 85 1018.5
20260902052433 18 241 0.0 0.0 0.00 0.05 0.00 85 1018.6
20260902052354 19 241 0.0 0.0 0.00 0.05 0.00 85 1018.5
20260902052315 18 241 0.0 0.0 0.00 0.05 0.00 85 1018.5
20260902052217 18 241 0.0 0.0 0.00 0.05 0.00 84 1018.5
20260902052139 18 241 0.0 0.0 0.00 0.05 0.00 84 1018.5
20260902051947 18 241 0.0 0.0 0.00 0.05 0.00 85 1018.5
20260902051827 18 241 0.0 0.0 0.00 0.05 0.00 84 1018.5
20260902051729 18 241 0.0 0.0 0.00 0.05 0.00 84 1018.5
20260902051650 18 250 0.0 0.0 0.00 0.05 0.00 84 1018.5
20260902051610 18 202 0.0 0.0 0.00 0.05 0.00 85 1018.5
20260902051512 18 202 0.0 0.0 0.00 0.05 0.00 86 1018.5
20260902051434 18 202 0.0 0.0 0.00 0.05 0.00 85 1018.5
20260902051303 18 202 0.0 0.0 0.00 0.05 0.00 85 1018.4
20260902051218 18 202 0.0 0.0 0.00 0.05 0.00 85 1018.5
20260902050955 18 202 0.0 0.0 0.00 0.05 0.00 84 1018.5
20260902050855 18 202 0.0 0.0 0.00 0.05 0.00 84 1018.5
20260902050758 18 202 0.0 0.0 0.00 0.05 0.00 84 1018.5
20260902050720 18 202 0.0 0.0 0.00 0.05 0.00 84 1018.5
20260902050533 19 202 0.0 0.0 0.00 0.05 0.00 84 1018.5
20260902050429 19 202 0.0 0.0 0.00 0.05 0.00 84 1018.5
20260902050349 19 202 0.0 0.0 0.00 0.05 0.00 84 1018.5
20260902050231 19 202 0.0 1.6 0.00 0.05 0.00 84 1018.5
20260902050153 19 202 0.0 1.6 0.00 0.05 0.00 84 1018.5
20260902045934 19 202 0.0 1.6 0.00 0.05 0.00 83 1018.5
20260902045854 19 202 0.0 1.6 0.00 0.05 0.00 84 1018.5
20260902045758 19 202 0.0 1.6 0.00 0.05 0.00 83 1018.5
20260902045720 19 202 0.0 1.6 0.00 0.05 0.00 83 1018.5
20260902045554 19 202 0.0 1.6 0.00 0.05 0.00 84 1018.5
20260902045427 19 182 0.0 1.6 0.00 0.05 0.00 83 1018.5
20260902045256 19 182 0.0 1.6 0.00 0.05 0.00 83 1018.5
20260902045217 19 156 0.0 1.6 0.00 0.05 0.00 84 1018.4
20260902045048 19 170 0.0 0.0 0.00 0.05 0.00 83 1018.3
20260902045002 19 170 0.0 0.0 0.00 0.05 0.00 83 1018.3
20260902044833 19 170 0.0 0.0 0.00 0.05 0.00 83 1018.3
20260902044734 19 170 0.0 0.0 0.00 0.05 0.00 83 1018.3
20260902044537 19 170 0.0 1.6 0.00 0.05 0.00 82 1018.3
20260902044456 19 170 0.0 1.6 0.00 0.05 0.00 82 1018.2
20260902044359 19 170 0.0 1.6 0.00 0.05 0.00 83 1018.3
20260902044321 19 170 0.0 1.6 0.00 0.05 0.00 83 1018.3
20260902044154 19 170 0.0 3.2 0.00 0.05 0.00 82 1018.3
20260902044108 19 170 0.0 3.2 0.00 0.05 0.00 82 1018.3
20260902043937 19 170 0.0 3.2 0.00 0.05 0.00 82 1018.3
20260902043838 19 170 0.0 3.2 0.00 0.05 0.00 82 1018.3
20260902043641 19 170 0.0 3.2 0.00 0.05 0.00 82 1018.3
20260902043601 19 170 0.0 3.2 0.00 0.05 0.00 81 1018.3
20260902043443 19 170 0.0 4.8 0.00 0.05 0.00 81 1018.3
20260902043406 19 214 0.0 4.8 0.00 0.05 0.00 81 1018.3
20260902043214 19 214 0.0 4.8 0.00 0.05 0.00 81 1018.3
20260902043129 19 214 1.6 6.4 0.00 0.05 0.00 81 1018.3
20260902042958 19 214 1.6 6.4 0.00 0.05 0.00 81 1018.4
20260902042925 20 214 1.6 6.4 0.00 0.05 0.00 81 1018.4
20260902042728 20 214 1.6 6.4 0.00 0.05 0.00 81 1018.4
20260902042648 20 214 1.6 6.4 0.00 0.05 0.00 80 1018.4
20260902042551 20 225 1.6 6.4 0.00 0.05 0.00 80 1018.3
20260902042432 20 222 1.6 6.4 0.00 0.05 0.00 80 1018.4
20260902042334 20 222 3.2 6.4 0.00 0.05 0.00 80 1018.3
20260902042255 20 222 3.2 6.4 0.00 0.05 0.00 80 1018.3
20260902042215 20 216 3.2 9.7 0.00 0.05 0.00 80 1018.3
20260902042119 20 216 3.2 9.7 0.00 0.05 0.00 81 1018.3
20260902042041 20 209 3.2 9.7 0.00 0.05 0.00 80 1018.3
20260902041833 20 201 1.6 9.7 0.00 0.05 0.00 80 1018.2
20260902041727 20 182 1.6 9.7 0.00 0.05 0.00 80 1018.2
20260902041622 20 166 3.2 9.7 0.00 0.05 0.00 80 1018.2
20260902041554 20 194 3.2 9.7 0.00 0.05 0.00 80 1018.2
20260902041516 20 207 4.8 9.7 0.00 0.05 0.00 79 1018.1
20260902041418 20 190 4.8 9.7 0.00 0.05 0.00 80 1018.2
20260902041319 20 192 4.8 9.7 0.00 0.05 0.00 80 1018.2
20260902041158 20 187 4.8 9.7 0.00 0.05 0.00 80 1018.2
20260902041114 20 195 4.8 9.7 0.00 0.05 0.00 79 1018.1
20260902040923 20 167 3.2 6.4 0.00 0.05 0.00 80 1018.1
20260902040841 20 167 1.6 4.8 0.00 0.05 0.00 80 1018.1
20260902040618 20 167 3.2 4.8 0.00 0.05 0.00 80 1018.1
20260902040541 20 167 3.2 6.4 0.00 0.05 0.00 79 1018.1
20260902040341 20 163 0.0 3.2 0.00 0.05 0.00 80 1018.1
20260902040242 20 163 1.6 3.2 0.00 0.05 0.00 80 1018.1
20260902040125 20 163 1.6 3.2 0.00 0.05 0.00 79 1018.2
20260902040047 20 163 0.0 3.2 0.00 0.05 0.00 80 1018.2
20260902040008 20 167 0.0 8.0 0.00 0.05 0.00 79 1018.2
20260902035913 20 167 0.0 8.0 0.00 0.05 0.05 79 1018.2
20260902035834 20 167 0.0 8.0 0.00 0.05 0.05 79 1018.2
20260902035704 20 167 0.0 8.0 0.00 0.05 0.05 79 1018.2
20260902035623 20 167 1.6 8.0 0.00 0.05 0.05 79 1018.2
20260902035454 20 167 1.6 8.0 0.00 0.05 0.05 79 1018.1
20260902035415 20 164 1.6 8.0 0.00 0.05 0.05 79 1018.1
20260902035239 20 164 3.2 8.0 0.00 0.05 0.05 79 1018.1
20260902035200 20 148 3.2 8.0 0.00 0.05 0.05 79 1018.1
20260902034908 20 160 0.0 4.8 0.00 0.05 0.05 80 1018.1
20260902034726 20 160 0.0 8.0 0.00 0.05 0.05 78 1018.1
20260902034631 20 160 1.6 8.0 0.00 0.05 0.05 78 1018.1
20260902034553 20 160 1.6 8.0 0.00 0.05 0.05 78 1018.1
20260902034422 20 162 1.6 8.0 0.00 0.05 0.05 78 1018.0
20260902034337 20 180 3.2 8.0 0.00 0.05 0.05 78 1018.0
20260902034206 20 175 3.2 8.0 0.00 0.05 0.05 78 1018.1
20260902034107 20 171 4.8 8.0 0.00 0.05 0.05 78 1018.0
20260902034012 20 203 4.8 8.0 0.00 0.05 0.05 78 1018.0
20260902033933 20 193 4.8 8.0 0.00 0.05 0.05 78 1018.0
20260902033804 20 220 4.8 8.0 0.00 0.05 0.05 78 1018.0
20260902033704 20 217 3.2 6.4 0.00 0.05 0.05 78 1018.0
20260902033528 20 190 1.6 6.4 0.00 0.05 0.05 78 1018.0
20260902033455 20 186 1.6 6.4 0.00 0.05 0.05 78 1018.0
20260902033238 20 183 1.6 6.4 0.00 0.05 0.05 78 1017.8
20260902033159 20 183 1.6 6.4 0.00 0.05 0.05 78 1017.9
20260902033023 20 157 0.0 3.2 0.00 0.05 0.05 78 1017.8
20260902032938 20 157 0.0 3.2 0.00 0.05 0.05 78 1017.8
20260902032809 20 157 0.0 3.2 0.00 0.05 0.05 78 1017.9
20260902032731 20 157 0.0 3.2 0.00 0.05 0.05 79 1017.9
20260902032554 20 157 0.0 6.4 0.00 0.05 0.05 78 1017.9
20260902032517 20 157 0.0 6.4 0.00 0.05 0.05 78 1017.9
20260902032330 20 157 1.6 6.4 0.00 0.05 0.05 78 1017.9
20260902032245 20 157 1.6 6.4 0.00 0.05 0.05 78 1017.9
20260902032115 20 156 1.6 6.4 0.00 0.05 0.05 78 1017.9
20260902032037 20 156 1.6 6.4 0.00 0.05 0.05 78 1017.9
20260902031843 20 174 3.2 6.4 0.00 0.05 0.05 78 1017.9
20260902031804 20 177 3.2 6.4 0.00 0.05 0.05 78 1017.9
20260902031707 19 211 3.2 6.4 0.00 0.05 0.05 78 1017.9
20260902031630 19 213 3.2 6.4 0.00 0.05 0.05 79 1017.9
20260902031435 20 202 1.6 4.8 0.00 0.05 0.05 79 1017.9
20260902031322 20 194 1.6 4.8 0.00 0.05 0.05 80 1017.9
20260902031245 20 241 3.2 4.8 0.00 0.05 0.05 80 1017.9
20260902031146 20 192 1.6 4.8 0.00 0.05 0.05 80 1017.8
20260902031014 20 192 0.0 1.6 0.00 0.05 0.05 81 1017.7
20260902030929 20 192 0.0 1.6 0.00 0.05 0.05 81 1017.7
20260902030738 20 192 0.0 1.6 0.00 0.05 0.05 80 1017.7
20260902030633 20 192 0.0 1.6 0.00 0.05 0.05 80 1017.6
20260902030529 20 192 0.0 3.2 0.00 0.05 0.05 80 1017.6
20260902030450 20 192 0.0 3.2 0.00 0.05 0.05 79 1017.6
20260902030259 20 192 0.0 4.8 0.00 0.05 0.05 78 1017.5
20260902030216 20 192 0.0 4.8 0.00 0.05 0.05 80 1017.5
20260902025955 20 192 0.0 4.8 0.00 0.05 0.05 80 1017.5
20260902025918 20 192 0.0 4.8 0.00 0.05 0.05 79 1017.5
20260902025741 20 192 1.6 4.8 0.00 0.05 0.05 78 1017.4
20260902025641 20 192 1.6 4.8 0.00 0.05 0.05 78 1017.4
20260902025525 20 192 1.6 8.0 0.00 0.05 0.05 78 1017.4
20260902025448 20 192 0.0 8.0 0.00 0.05 0.05 78 1017.4
20260902025318 20 192 0.0 8.0 0.00 0.05 0.05 77 1017.3
20260902025231 20 192 0.0 8.0 0.00 0.05 0.05 77 1017.3
20260902025042 20 192 0.0 8.0 0.00 0.05 0.05 77 1017.3
20260902025000 20 192 1.6 8.0 0.00 0.05 0.05 77 1017.3
20260902024832 20 198 1.6 8.0 0.00 0.05 0.05 77 1017.3
20260902024732 20 207 1.6 8.0 0.00 0.05 0.05 77 1017.3
20260902024535 20 186 1.6 6.4 0.00 0.05 0.05 77 1017.2
20260902024458 20 171 1.6 6.4 0.00 0.05 0.05 77 1017.2
20260902024342 20 171 3.2 6.4 0.00 0.05 0.05 78 1017.1
20260902024305 20 206 3.2 6.4 0.00 0.05 0.05 78 1017.1
20260902024107 20 192 1.6 6.4 0.00 0.05 0.05 78 1017.2
20260902024029 20 192 3.2 6.4 0.00 0.05 0.05 78 1017.2
20260902023840 20 207 4.8 6.4 0.00 0.05 0.05 78 1017.2
20260902023757 20 176 4.8 6.4 0.00 0.05 0.05 78 1017.2
20260902023605 20 182 1.6 6.4 0.00 0.05 0.05 78 1017.1
20260902023527 20 194 0.0 4.8 0.00 0.05 0.05 78 1017.1
20260902023331 20 175 0.0 4.8 0.00 0.05 0.05 79 1017.2
20260902023252 20 175 0.0 4.8 0.00 0.05 0.05 78 1017.1
20260902023156 20 175 0.0 6.4 0.00 0.05 0.05 78 1017.2
20260902023118 20 175 1.6 6.4 0.00 0.05 0.05 79 1017.2
20260902022926 20 175 0.0 6.4 0.00 0.05 0.05 78 1017.2
20260902022821 20 184 0.0 6.4 0.00 0.05 0.05 78 1017.3
20260902022630 20 184 0.0 8.0 0.00 0.05 0.05 78 1017.2
20260902022545 20 184 1.6 8.0 0.00 0.05 0.05 78 1017.3
20260902022419 20 221 3.2 8.0 0.00 0.05 0.05 78 1017.3
20260902022340 20 200 3.2 8.0 0.00 0.05 0.05 78 1017.3
20260902022209 20 164 4.8 8.0 0.00 0.05 0.05 77 1017.4
20260902022124 20 173 3.2 8.0 0.00 0.05 0.05 77 1017.4
20260902021935 20 169 4.8 8.0 0.00 0.05 0.05 78 1017.4
20260902021850 20 171 4.8 9.7 0.00 0.05 0.05 78 1017.4
20260902021659 20 186 3.2 4.8 0.00 0.05 0.05 79 1017.4
20260902021559 20 180 3.2 6.4 0.00 0.05 0.05 78 1017.4
20260902021424 20 188 1.6 6.4 0.00 0.05 0.05 79 1017.4
20260902021340 20 188 3.2 6.4 0.00 0.05 0.05 79 1017.4
20260902021214 20 176 1.6 8.0 0.00 0.05 0.05 79 1017.4
20260902021135 20 176 1.6 8.0 0.00 0.05 0.05 79 1017.4
20260902021005 20 176 1.6 8.0 0.00 0.05 0.05 79 1017.5
20260902020920 20 176 3.2 8.0 0.00 0.05 0.05 79 1017.5
20260902020740 20 174 3.2 8.0 0.00 0.05 0.05 79 1017.5
20260902020655 20 176 3.2 8.0 0.00 0.05 0.05 79 1017.5
20260902020526 20 175 4.8 8.0 0.00 0.05 0.05 79 1017.5
20260902020425 20 173 4.8 6.4 0.00 0.05 0.05 79 1017.5
20260902020225 20 183 3.2 8.0 0.00 0.05 0.05 79 1017.5
20260902020147 20 175 4.8 8.0 0.00 0.05 0.05 79 1017.5
20260902020034 20 183 3.2 8.0 0.00 0.05 0.05 79 1017.6
20260902015955 20 169 1.6 8.0 0.00 0.05 0.05 79 1017.5
20260902015917 20 211 1.6 8.0 0.00 0.05 0.05 79 1017.5
20260902015818 20 165 3.2 8.0 0.00 0.05 0.05 80 1017.6
20260902015739 20 165 3.2 8.0 0.00 0.05 0.05 80 1017.6
20260902015608 20 214 3.2 8.0 0.00 0.05 0.05 80 1017.6
20260902015441 20 208 1.6 6.4 0.00 0.05 0.05 80 1017.6
20260902015325 20 155 1.6 4.8 0.00 0.05 0.05 80 1017.6
20260902015246 20 176 1.6 4.8 0.00 0.05 0.05 80 1017.6
20260902015207 20 194 1.6 4.8 0.00 0.05 0.05 80 1017.6
20260902015111 20 194 0.0 4.8 0.00 0.05 0.05 80 1017.5
20260902015037 20 194 1.6 4.8 0.00 0.05 0.05 80 1017.5
20260902014908 20 194 1.6 4.8 0.00 0.05 0.05 79 1017.5
20260902014823 20 194 3.2 4.8 0.00 0.05 0.05 79 1017.5
20260902014654 20 192 3.2 6.4 0.00 0.05 0.05 79 1017.5
20260902014615 20 219 1.6 6.4 0.00 0.05 0.05 80 1017.5
20260902014446 20 215 0.0 6.4 0.00 0.05 0.05 81 1017.5
20260902014401 20 254 1.6 6.4 0.00 0.05 0.05 80 1017.5
20260902014220 21 234 1.6 6.4 0.00 0.05 0.05 79 1017.5
20260902014121 21 234 1.6 6.4 0.00 0.05 0.05 79 1017.4
20260902013925 21 157 3.2 6.4 0.00 0.05 0.05 76 1017.5
20260902013847 20 185 4.8 6.4 0.00 0.05 0.05 76 1017.5
20260902013751 20 148 4.8 9.7 0.00 0.05 0.05 77 1017.4
20260902013716 20 184 4.8 9.7 0.00 0.05 0.05 78 1017.4
20260902013546 21 159 3.2 9.7 0.00 0.05 0.05 78 1017.4
20260902013441 21 188 3.2 9.7 0.00 0.05 0.05 77 1017.4
20260902013325 21 159 1.6 9.7 0.00 0.05 0.05 79 1017.4
20260902013225 21 135 1.6 9.7 0.00 0.05 0.05 78 1017.4
20260902013147 21 135 3.2 9.7 0.00 0.05 0.05 77 1017.4
20260902013050 21 135 3.2 9.7 0.00 0.05 0.05 77 1017.4
20260902013012 21 176 3.2 11.3 0.00 0.05 0.05 78 1017.4
20260902012822 21 139 1.6 12.9 0.00 0.05 0.05 78 1017.4
20260902012716 21 182 1.6 12.9 0.00 0.05 0.05 78 1017.4
20260902012550 21 196 3.2 12.9 0.00 0.05 0.05 78 1017.4
20260902012511 21 188 3.2 12.9 0.00 0.05 0.05 77 1017.4
20260902012414 21 215 3.2 16.1 0.00 0.05 0.05 77 1017.4
20260902012316 21 186 1.6 16.1 0.00 0.05 0.05 77 1017.4
20260902012238 21 179 4.8 16.1 0.00 0.05 0.05 77 1017.4
20260902012109 21 162 8.0 16.1 0.00 0.05 0.05 77 1017.3
20260902012025 21 166 6.4 16.1 0.00 0.05 0.05 77 1017.3
20260902011835 21 118 6.4 16.1 0.00 0.05 0.05 77 1017.3
20260902011728 21 165 8.0 16.1 0.00 0.05 0.05 77 1017.3
20260902011659 21 155 8.0 16.1 0.00 0.05 0.05 77 1017.3
20260902011528 21 142 4.8 14.5 0.00 0.05 0.05 78 1017.3
20260902011443 21 172 4.8 17.7 0.00 0.05 0.05 78 1017.4
20260902011254 21 122 6.4 17.7 0.00 0.05 0.05 78 1017.4
20260902011215 21 205 6.4 17.7 0.00 0.05 0.05 78 1017.4
20260902011046 21 132 9.7 17.7 0.00 0.05 0.05 78 1017.3
20260902010938 20 134 9.7 17.7 0.00 0.05 0.05 79 1017.4
20260902010900 20 166 8.0 17.7 0.00 0.05 0.05 79 1017.3
20260902010752 20 159 8.0 17.7 0.00 0.05 0.05 80 1017.3
20260902010541 20 155 3.2 12.9 0.00 0.05 0.05 81 1017.3
20260902010440 20 173 4.8 12.9 0.00 0.05 0.05 81 1017.3
20260902010325 20 173 8.0 12.9 0.00 0.05 0.05 81 1017.3
20260902010247 20 182 8.0 12.9 0.00 0.05 0.05 81 1017.3
20260902010207 20 148 6.4 12.9 0.00 0.05 0.05 83 1017.3
20260902010111 20 205 4.8 12.9 0.00 0.05 0.05 83 1017.3
20260902010032 20 169 4.8 12.9 0.00 0.05 0.05 84 1017.3
20260902005902 19 154 4.8 12.9 0.00 0.05 0.05 84 1017.3
20260902005817 19 166 3.2 6.4 0.00 0.05 0.05 84 1017.3
20260902005647 19 199 0.0 6.4 0.00 0.05 0.05 85 1017.3
20260902005548 19 182 0.0 6.4 0.00 0.05 0.05 85 1017.3
20260902005511 19 182 1.6 6.4 0.00 0.05 0.05 85 1017.3
20260902005414 19 182 3.2 6.4 0.00 0.05 0.05 85 1017.3
20260902005340 19 188 1.6 6.4 0.00 0.05 0.05 86 1017.3
20260902005124 19 167 0.0 3.2 0.00 0.05 0.05 87 1017.3
20260902005025 19 153 0.0 3.2 0.00 0.05 0.05 86 1017.2
20260902004929 19 153 0.0 3.2 0.00 0.05 0.05 86 1017.2
20260902004852 19 153 0.0 3.2 0.00 0.05 0.05 87 1017.2
20260902004722 19 153 0.0 3.2 0.00 0.05 0.05 86 1017.2
20260902004637 19 153 0.0 3.2 0.00 0.05 0.05 86 1017.2
20260902004425 19 203 0.0 0.0 0.00 0.05 0.05 87 1017.2
20260902004351 19 203 0.0 0.0 0.00 0.05 0.05 87 1017.1
20260902004221 19 203 0.0 0.0 0.00 0.05 0.05 87 1017.2
20260902004146 19 203 0.0 0.0 0.00 0.05 0.05 87 1017.2
20260902004017 19 203 0.0 0.0 0.00 0.05 0.05 87 1017.2
20260902003933 19 203 0.0 0.0 0.00 0.05 0.05 87 1017.2
20260902003804 19 203 0.0 0.0 0.00 0.05 0.05 87 1017.2
20260902003724 19 203 0.0 0.0 0.00 0.05 0.05 87 1017.2
20260902003526 19 203 0.0 0.0 0.00 0.05 0.05 87 1017.2
20260902003448 19 203 0.0 0.0 0.00 0.05 0.05 87 1017.2
20260902003333 19 203 0.0 0.0 0.00 0.05 0.05 87 1017.2
20260902003254 19 203 0.0 0.0 0.00 0.05 0.05 87 1017.2
20260902003218 19 203 0.0 0.0 0.00 0.05 0.05 88 1017.2
20260902003119 19 203 0.0 0.0 0.00 0.05 0.05 87 1017.2
20260902003046 19 203 0.0 0.0 0.00 0.05 0.05 87 1017.2
20260902002914 19 203 0.0 0.0 0.00 0.05 0.05 87 1017.1
20260902002829 19 203 0.0 0.0 0.00 0.05 0.05 87 1017.1
20260902002640 19 203 0.0 0.0 0.00 0.05 0.05 87 1017.1
20260902002555 19 203 0.0 0.0 0.00 0.05 0.05 87 1017.0
20260902002404 19 203 0.0 0.0 0.00 0.05 0.05 87 1017.0
20260902002326 19 203 0.0 0.0 0.00 0.05 0.05 87 1017.0
20260902002129 19 203 0.0 0.0 0.00 0.05 0.05 86 1017.0
20260902002051 19 203 0.0 0.0 0.00 0.05 0.05 86 1017.0
20260902001936 19 203 0.0 0.0 0.00 0.05 0.05 86 1017.0
20260902001902 19 203 0.0 0.0 0.00 0.05 0.05 86 1017.0
20260902001731 20 203 0.0 3.2 0.00 0.05 0.05 87 1017.1
20260902001626 20 203 0.0 3.2 0.00 0.05 0.05 87 1017.1
20260902001454 20 203 0.0 3.2 0.00 0.05 0.05 86 1017.1
20260902001328 20 203 0.0 3.2 0.00 0.05 0.05 86 1017.0
20260902001230 20 203 0.0 3.2 0.00 0.05 0.05 86 1017.1
20260902001155 20 203 0.0 3.2 0.00 0.05 0.05 87 1017.1
20260902001117 20 203 0.0 3.2 0.00 0.05 0.05 86 1017.1
20260902000948 20 203 0.0 3.2 0.00 0.05 0.05 86 1017.1
20260902000915 20 203 0.0 3.2 0.00 0.05 0.05 86 1017.1
20260902000746 20 203 0.0 0.0 0.00 0.05 0.05 87 1017.2
20260902000711 20 203 0.0 0.0 0.00 0.05 0.05 87 1017.2
20260902000520 20 203 0.0 0.0 0.00 0.05 0.05 87 1017.3
20260902000415 20 203 0.0 0.0 0.00 0.05 0.05 87 1017.2
20260902000226 20 203 0.0 0.0 0.00 0.05 0.05 86 1017.2
20260902000138 20 203 0.0 0.0 0.00 0.05 0.05 86 1017.2
20260902000007 20 203 0.0 0.0 0.00 0.05 0.05 86 1017.2
20260901235930 20 203 0.0 0.0 0.00 0.05 0.05 86 1017.2
20260901235732 20 203 0.0 0.0 0.00 0.05 0.05 86 1017.2
20260901235654 20 203 0.0 0.0 0.00 0.05 0.05 86 1017.2
20260901235538 20 203 0.0 0.0 0.00 0.05 0.05 86 1017.2
20260901235504 20 203 0.0 0.0 0.00 0.05 0.05 86 1017.2
20260901235314 20 203 0.0 0.0 0.00 0.05 0.05 86 1017.1
20260901235228 20 203 0.0 0.0 0.00 0.05 0.05 86 1017.1
20260901235039 20 203 0.0 0.0 0.00 0.05 0.05 85 1017.2
20260901234934 20 203 0.0 0.0 0.00 0.05 0.05 85 1017.2
20260901234856 20 203 0.0 0.0 0.00 0.05 0.05 86 1017.2
20260901234801 20 203 0.0 0.0 0.00 0.05 0.05 86 1017.2
20260901234640 20 203 0.0 1.6 0.00 0.05 0.05 85 1017.2
20260901234523 20 203 0.0 3.2 0.00 0.05 0.05 85 1017.2
20260901234449 20 203 0.0 3.2 0.00 0.05 0.05 85 1017.1
20260901234223 20 203 0.0 3.2 0.00 0.05 0.05 85 1017.2
20260901234054 20 203 0.0 3.2 0.00 0.05 0.05 85 1017.2
20260901233948 20 203 0.0 3.2 0.00 0.05 0.05 85 1017.2
20260901233735 20 203 1.6 3.2 0.00 0.05 0.05 84 1017.2
20260901233649 20 203 0.0 3.2 0.00 0.05 0.05 84 1017.1
20260901233438 20 203 0.0 0.0 0.00 0.05 0.05 85 1017.1
20260901233333 20 203 0.0 0.0 0.00 0.05 0.05 85 1017.1
20260901233254 20 203 0.0 0.0 0.00 0.05 0.05 85 1017.1
20260901233218 20 203 0.0 0.0 0.00 0.05 0.05 85 1017.1
20260901233134 20 203 0.0 0.0 0.00 0.05 0.05 85 1017.1
20260901233002 20 203 0.0 0.0 0.00 0.05 0.05 84 1017.1
20260901232902 20 203 0.0 0.0 0.00 0.05 0.05 84 1017.1
20260901232756 20 203 0.0 0.0 0.00 0.05 0.05 83 1017.2
20260901232716 20 203 0.0 0.0 0.00 0.05 0.05 83 1017.2
20260901232638 20 203 0.0 0.0 0.00 0.05 0.05 83 1017.2
20260901232502 21 203 0.0 0.0 0.00 0.05 0.05 82 1017.2
20260901232423 21 203 0.0 0.0 0.00 0.05 0.05 82 1017.2
20260901232237 21 203 0.0 0.0 0.00 0.05 0.05 83 1017.2
20260901232123 21 203 0.0 0.0 0.00 0.05 0.05 83 1017.2
20260901232026 21 203 0.0 0.0 0.00 0.05 0.05 82 1017.2
20260901231948 21 203 0.0 0.0 0.00 0.05 0.05 81 1017.2
20260901231909 21 203 0.0 0.0 0.00 0.05 0.05 81 1017.2
20260901231812 21 203 0.0 0.0 0.00 0.05 0.05 82 1017.2
20260901231712 21 203 0.0 0.0 0.00 0.05 0.05 82 1017.2
20260901231633 21 203 0.0 0.0 0.00 0.05 0.05 81 1017.1
20260901231515 21 203 0.0 3.2 0.00 0.05 0.05 82 1017.1
20260901231437 21 203 0.0 3.2 0.00 0.05 0.05 81 1017.1
20260901231309 21 203 0.0 3.2 0.00 0.05 0.05 81 1017.1
20260901231225 21 203 0.0 3.2 0.00 0.05 0.05 81 1017.1
20260901231105 21 203 0.0 3.2 0.00 0.05 0.05 82 1017.1
20260901231026 21 203 0.0 3.2 0.00 0.05 0.05 82 1017.1
20260901230900 21 203 0.0 3.2 0.00 0.05 0.05 81 1017.0
20260901230815 21 203 0.0 3.2 0.00 0.05 0.05 80 1017.1
20260901230646 21 203 0.0 0.0 0.00 0.05 0.05 81 1017.0
20260901230547 21 203 0.0 0.0 0.00 0.05 0.05 81 1017.0
20260901230410 21 203 0.0 1.6 0.00 0.05 0.05 81 1017.0
20260901230331 21 203 0.0 1.6 0.00 0.05 0.05 81 1017.0
20260901230211 21 203 0.0 1.6 0.00 0.05 0.05 81 1016.9
20260901230126 21 203 0.0 1.6 0.00 0.05 0.05 80 1016.9
20260901225956 21 203 0.0 1.6 0.00 0.05 0.05 80 1016.9
20260901225917 21 203 0.0 1.6 0.00 0.05 0.05 79 1016.9
20260901225749 21 203 0.0 3.2 0.00 0.05 0.05 79 1016.9
20260901225626 21 203 0.0 3.2 0.00 0.05 0.05 78 1016.9
20260901225531 21 203 0.0 3.2 0.00 0.05 0.05 79 1016.9
20260901225452 21 203 0.0 3.2 0.00 0.05 0.05 77 1016.8
20260901225413 21 203 0.0 3.2 0.00 0.05 0.05 77 1016.8
20260901225318 21 203 0.0 3.2 0.00 0.05 0.05 77 1016.8
20260901225218 21 203 0.0 3.2 0.00 0.05 0.05 78 1016.7
20260901225047 21 203 1.6 11.3 0.00 0.05 0.05 77 1016.7
20260901224942 21 203 1.6 11.3 0.00 0.05 0.05 77 1016.7
20260901224903 21 200 0.0 11.3 0.00 0.05 0.05 77 1016.8
20260901224817 21 200 0.0 11.3 0.00 0.05 0.05 78 1016.8
20260901224739 21 200 0.0 11.3 0.00 0.05 0.05 78 1016.8
20260901224548 21 200 1.6 11.3 0.00 0.05 0.05 77 1016.7
20260901224454 21 221 3.2 11.3 0.00 0.05 0.05 77 1016.7
20260901224235 21 206 1.6 11.3 0.00 0.05 0.05 78 1016.7
20260901224157 21 177 1.6 6.4 0.00 0.05 0.05 78 1016.7
20260901224041 22 177 1.6 6.4 0.00 0.05 0.05 76 1016.7
20260901223924 22 177 1.6 6.4 0.00 0.05 0.05 77 1016.7
20260901223845 22 171 0.0 6.4 0.00 0.05 0.05 77 1016.7
20260901223746 22 177 1.6 6.4 0.00 0.05 0.05 77 1016.7
20260901223648 22 177 3.2 6.4 0.00 0.05 0.05 76 1016.7
20260901223528 22 188 4.8 6.4 0.00 0.05 0.05 77 1016.6
20260901223436 22 140 4.8 6.4 0.00 0.05 0.05 76 1016.6
20260901223357 22 188 3.2 6.4 0.00 0.05 0.05 77 1016.6
20260901223227 22 190 1.6 4.8 0.00 0.05 0.05 77 1016.6
20260901223127 22 190 1.6 4.8 0.00 0.05 0.05 77 1016.6
20260901223008 22 190 1.6 4.8 0.00 0.05 0.05 77 1016.6
20260901222930 22 193 0.0 4.8 0.00 0.05 0.05 77 1016.6
20260901222746 22 161 1.6 4.8 0.00 0.05 0.05 78 1016.6
20260901222527 22 145 1.6 8.0 0.00 0.05 0.05 77 1016.7
20260901222449 22 145 1.6 8.0 0.00 0.05 0.05 77 1016.7
20260901222332 22 173 0.0 8.0 0.00 0.05 0.05 77 1016.6
20260901222253 22 173 0.0 8.0 0.00 0.05 0.05 77 1016.6
20260901222140 22 173 0.0 8.0 0.00 0.05 0.05 79 1016.6
20260901222102 22 173 1.6 8.0 0.00 0.05 0.05 78 1016.6
20260901221909 22 173 4.8 8.0 0.00 0.05 0.05 77 1016.6
20260901221826 22 183 3.2 8.0 0.00 0.05 0.05 77 1016.6
20260901221635 22 144 0.0 1.6 0.00 0.05 0.05 79 1016.6
20260901221550 22 144 0.0 1.6 0.00 0.05 0.05 79 1016.6
20260901221419 22 144 0.0 1.6 0.00 0.05 0.05 79 1016.6
20260901221341 22 144 0.0 1.6 0.00 0.05 0.05 79 1016.6
20260901221210 22 144 0.0 1.6 0.00 0.05 0.05 79 1016.6
20260901221126 22 144 0.0 3.2 0.00 0.05 0.05 79 1016.6
20260901220957 22 144 0.0 3.2 0.00 0.05 0.05 80 1016.5
20260901220919 22 144 0.0 3.2 0.00 0.05 0.05 80 1016.5
20260901220719 22 144 0.0 3.2 0.00 0.05 0.05 81 1016.5
20260901220530 22 144 0.0 4.8 0.00 0.05 0.05 81 1016.5
20260901220424 22 144 1.6 4.8 0.00 0.05 0.05 80 1016.5
20260901220346 22 144 1.6 4.8 0.00 0.05 0.05 79 1016.5
20260901220248 22 144 1.6 4.8 0.00 0.05 0.05 79 1016.5
20260901220149 22 144 1.6 4.8 0.00 0.05 0.05 79 1016.5
20260901220018 22 173 1.6 4.8 0.00 0.05 0.05 79 1016.5
20260901215932 22 173 1.6 4.8 0.00 0.05 0.05 79 1016.5
20260901215742 22 185 0.0 4.8 0.00 0.05 0.05 77 1016.5
20260901215701 22 180 0.0 4.8 0.00 0.05 0.05 78 1016.5
20260901215531 22 180 0.0 4.8 0.00 0.05 0.05 77 1016.6
20260901215430 22 180 0.0 4.8 0.00 0.05 0.05 77 1016.4
20260901215257 22 180 1.6 4.8 0.00 0.05 0.05 77 1016.4
20260901215219 22 180 0.0 4.8 0.00 0.05 0.05 77 1016.4
20260901215049 22 180 1.6 4.8 0.00 0.05 0.05 77 1016.5
20260901214950 22 180 1.6 4.8 0.00 0.05 0.05 77 1016.5
20260901214731 22 151 0.0 3.2 0.00 0.05 0.05 78 1016.4
20260901214652 22 151 0.0 3.2 0.00 0.05 0.05 78 1016.4
20260901214536 22 151 0.0 3.2 0.00 0.05 0.05 77 1016.5
20260901214434 22 151 0.0 3.2 0.00 0.05 0.05 77 1016.4
20260901214335 22 151 0.0 3.2 0.00 0.05 0.05 77 1016.5
20260901214251 22 151 0.0 3.2 0.00 0.05 0.05 77 1016.5
20260901214129 22 151 0.0 3.2 0.00 0.05 0.05 77 1016.4
20260901214031 22 151 0.0 3.2 0.00 0.05 0.05 77 1016.4
20260901213833 22 151 0.0 1.6 0.00 0.05 0.05 76 1016.5
20260901213755 22 151 0.0 3.2 0.00 0.05 0.05 76 1016.5
20260901213640 22 151 0.0 4.8 0.00 0.05 0.05 76 1016.4
20260901213603 22 151 0.0 6.4 0.00 0.05 0.05 76 1016.4
20260901213405 22 151 0.0 6.4 0.00 0.05 0.05 76 1016.4
20260901213330 22 151 0.0 6.4 0.00 0.05 0.05 76 1016.4
20260901213159 22 151 0.0 6.4 0.00 0.05 0.05 76 1016.5
20260901213121 22 151 0.0 6.4 0.00 0.05 0.05 76 1016.5
20260901212925 22 151 3.2 6.4 0.00 0.05 0.05 76 1016.6
20260901212846 22 151 3.2 6.4 0.00 0.05 0.05 76 1016.5
20260901212748 22 209 3.2 6.4 0.00 0.05 0.05 76 1016.5
20260901212647 22 169 3.2 4.8 0.00 0.05 0.05 76 1016.5
20260901212608 22 171 3.2 4.8 0.00 0.05 0.05 75 1016.5
20260901212513 22 193 3.2 4.8 0.00 0.05 0.05 75 1016.6
20260901212434 22 173 3.2 6.4 0.00 0.05 0.05 75 1016.6
20260901212252 22 207 3.2 6.4 0.00 0.05 0.05 76 1016.5
20260901212147 22 173 3.2 6.4 0.00 0.05 0.05 74 1016.5
20260901212020 22 206 1.6 8.0 0.00 0.05 0.05 75 1016.5
20260901211942 22 181 1.6 8.0 0.00 0.05 0.05 74 1016.5
20260901211811 22 190 3.2 11.3 0.00 0.05 0.05 74 1016.6
20260901211727 22 159 3.2 11.3 0.00 0.05 0.05 73 1016.6
20260901211606 22 180 1.6 11.3 0.00 0.05 0.05 72 1016.6
20260901211507 22 155 3.2 11.3 0.00 0.05 0.05 72 1016.6
20260901211330 22 155 4.8 12.9 0.00 0.05 0.05 71 1016.5
20260901211251 22 172 4.8 12.9 0.00 0.05 0.05 71 1016.5
20260901211133 22 171 4.8 12.9 0.00 0.05 0.05 71 1016.5
20260901211055 22 154 6.4 12.9 0.00 0.05 0.05 71 1016.5
20260901211015 22 150 4.8 12.9 0.00 0.05 0.05 72 1016.5
20260901210918 22 144 4.8 12.9 0.00 0.05 0.05 71 1016.5
20260901210845 22 170 4.8 12.9 0.00 0.05 0.05 71 1016.5
20260901210713 22 157 4.8 12.9 0.00 0.05 0.05 71 1016.6
20260901210615 22 146 4.8 12.9 0.00 0.05 0.05 71 1016.6
20260901210438 23 150 4.8 6.4 0.00 0.05 0.05 74 1016.5
20260901210340 23 145 3.2 6.4 0.00 0.05 0.05 73 1016.5
20260901210224 23 130 3.2 6.4 0.00 0.05 0.05 72 1016.5
20260901210147 23 142 1.6 8.0 0.00 0.05 0.05 73 1016.4
20260901205928 23 157 3.2 8.0 0.00 0.05 0.05 77 1016.5
20260901205850 23 157 1.6 8.0 0.00 0.05 0.05 75 1016.5
20260901205754 23 136 0.0 8.0 0.00 0.05 0.05 78 1016.4
20260901205719 23 175 0.0 8.0 0.00 0.05 0.05 77 1016.5
20260901205523 23 175 0.0 8.0 0.00 0.05 0.05 77 1016.4
20260901205425 23 175 0.0 8.0 0.00 0.05 0.05 77 1016.4
20260901205328 23 175 1.6 8.0 0.00 0.05 0.05 77 1016.4
20260901205230 23 175 3.2 8.0 0.00 0.05 0.05 72 1016.4
20260901205152 23 175 3.2 8.0 0.00 0.05 0.05 72 1016.4
20260901205056 23 209 1.6 8.0 0.00 0.05 0.05 74 1016.4
20260901205017 23 220 1.6 6.4 0.00 0.05 0.05 78 1016.4
20260901204847 23 147 1.6 6.4 0.00 0.05 0.05 78 1016.3
20260901204801 23 208 1.6 6.4 0.00 0.05 0.05 77 1016.3
20260901204613 23 206 1.6 4.8 0.00 0.05 0.05 78 1016.3
20260901204535 23 138 0.0 3.2 0.00 0.05 0.05 77 1016.3
20260901204337 23 138 0.0 3.2 0.00 0.05 0.05 77 1016.2
20260901204258 23 138 0.0 3.2 0.00 0.05 0.05 77 1016.2
20260901204141 23 138 0.0 4.8 0.00 0.05 0.05 77 1016.2
20260901204050 23 138 0.0 4.8 0.00 0.05 0.05 78 1016.2
20260901203953 23 138 0.0 4.8 0.00 0.05 0.05 78 1016.2
20260901203833 23 138 1.6 4.8 0.00 0.05 0.05 77 1016.2
20260901203618 23 138 1.6 4.8 0.00 0.05 0.05 76 1016.2
20260901203552 23 138 1.6 4.8 0.00 0.05 0.05 76 1016.2
20260901203436 23 138 3.2 4.8 0.00 0.05 0.05 76 1016.2
20260901203357 23 138 3.2 4.8 0.00 0.05 0.05 76 1016.2
20260901203317 23 138 3.2 4.8 0.00 0.05 0.05 75 1016.1
20260901203219 23 138 0.0 4.8 0.00 0.05 0.05 78 1016.1
20260901203120 23 163 0.0 4.8 0.00 0.05 0.05 78 1016.1
20260901202951 23 163 0.0 4.8 0.00 0.05 0.05 78 1016.2
20260901202845 23 163 0.0 4.8 0.00 0.05 0.05 77 1016.1
20260901202634 23 163 1.6 4.8 0.00 0.05 0.05 76 1016.1
20260901202550 23 163 3.2 4.8 0.00 0.05 0.05 76 1016.1
20260901202419 23 163 1.6 4.8 0.00 0.05 0.05 75 1016.1
20260901202346 23 175 1.6 4.8 0.00 0.05 0.05 75 1016.1
20260901202128 23 175 1.6 4.8 0.00 0.05 0.05 73 1016.2
20260901202050 23 148 1.6 4.8 0.00 0.05 0.05 73 1016.2
20260901201935 23 147 1.6 4.8 0.00 0.05 0.05 75 1016.1
20260901201856 23 148 1.6 4.8 0.00 0.05 0.05 75 1016.1
20260901201818 23 180 1.6 4.8 0.00 0.05 0.05 73 1016.2
20260901201722 23 180 1.6 4.8 0.00 0.05 0.05 72 1016.2
20260901201643 23 180 0.0 4.8 0.00 0.05 0.05 72 1016.1
20260901201513 23 161 0.0 3.2 0.00 0.05 0.05 74 1016.1
20260901201429 23 161 0.0 3.2 0.00 0.05 0.05 75 1016.1
20260901201248 23 161 0.0 3.2 0.00 0.05 0.05 75 1016.1
20260901201153 23 161 0.0 3.2 0.00 0.05 0.05 75 1016.1
20260901200936 23 161 0.0 4.8 0.00 0.05 0.05 75 1016.1
20260901200856 23 161 1.6 4.8 0.00 0.05 0.05 74 1016.0
20260901200740 23 161 1.6 4.8 0.00 0.05 0.05 74 1016.0
20260901200701 23 161 1.6 4.8 0.00 0.05 0.05 74 1016.0
20260901200424 23 161 0.0 8.0 0.00 0.05 0.05 74 1016.0
20260901200346 23 161 1.6 8.0 0.00 0.05 0.05 73 1016.0
20260901200214 23 161 1.6 8.0 0.00 0.05 0.05 72 1016.0
20260901200137 23 153 1.6 8.0 0.00 0.05 0.05 73 1016.0
20260901200059 23 153 1.6 8.0 0.00 0.05 0.05 72 1016.0
20260901200021 23 153 3.2 8.0 0.00 0.05 0.05 72 1016.0
20260901195937 23 186 3.2 8.0 0.00 0.05 0.05 71 1016.0
20260901195755 23 196 4.8 8.0 0.00 0.05 0.05 72 1016.0
20260901195717 23 201 4.8 8.0 0.00 0.05 0.05 70 1015.9
20260901195540 23 171 3.2 6.4 0.00 0.05 0.05 71 1016.0
20260901195440 24 159 3.2 6.4 0.00 0.05 0.05 70 1016.0
20260901195324 24 153 1.6 6.4 0.00 0.05 0.05 67 1016.0
20260901195245 24 153 1.6 6.4 0.00 0.05 0.05 67 1016.0
20260901195119 24 153 1.6 6.4 0.00 0.05 0.05 68 1016.0
20260901195034 24 153 1.6 6.4 0.00 0.05 0.05 68 1016.0
20260901194905 24 153 3.2 6.4 0.00 0.05 0.05 69 1016.0
20260901194827 24 154 1.6 6.4 0.00 0.05 0.05 69 1016.0
20260901194650 24 215 1.6 3.2 0.00 0.05 0.05 68 1016.0
20260901194612 24 215 1.6 3.2 0.00 0.05 0.05 67 1016.0
20260901194453 24 198 1.6 3.2 0.00 0.05 0.05 69 1016.0
20260901194408 24 198 1.6 4.8 0.00 0.05 0.05 69 1016.0
20260901194226 24 198 1.6 6.4 0.00 0.05 0.05 69 1016.0
20260901194127 24 198 1.6 6.4 0.00 0.05 0.05 68 1016.0
20260901193957 24 198 0.0 6.4 0.00 0.05 0.05 68 1016.0
20260901193901 24 198 0.0 6.4 0.00 0.05 0.05 68 1016.0
20260901193730 24 198 1.6 8.0 0.00 0.05 0.05 68 1016.1
20260901193635 24 198 1.6 8.0 0.00 0.05 0.05 68 1016.1
20260901193439 24 198 3.2 8.0 0.00 0.05 0.05 69 1016.1
20260901193359 24 183 3.2 8.0 0.00 0.05 0.05 69 1016.1
20260901193301 24 209 3.2 8.0 0.00 0.05 0.05 67 1016.2
20260901193223 24 209 3.2 8.0 0.00 0.05 0.05 67 1016.2
20260901193054 24 153 4.8 8.0 0.00 0.05 0.05 68 1016.2
20260901192947 24 175 4.8 8.0 0.00 0.05 0.05 68 1016.1
20260901192816 24 176 1.6 8.0 0.00 0.05 0.05 68 1016.1
20260901192737 24 178 3.2 8.0 0.00 0.05 0.05 68 1016.1
20260901192607 25 179 3.2 8.0 0.00 0.05 0.05 69 1016.1
20260901192522 25 223 1.6 8.0 0.00 0.05 0.05 68 1016.1
20260901192337 25 244 1.6 6.4 0.00 0.05 0.05 67 1016.1
20260901192251 25 238 0.0 6.4 0.00 0.05 0.05 70 1016.1
20260901192100 25 211 1.6 6.4 0.00 0.05 0.05 68 1016.1
20260901192020 25 211 3.2 6.4 0.00 0.05 0.05 68 1016.1
20260901191934 25 211 3.2 6.4 0.00 0.05 0.05 68 1016.1
20260901191833 24 238 1.6 4.8 0.00 0.05 0.05 69 1016.1
20260901191733 24 238 1.6 4.8 0.00 0.05 0.05 68 1016.1
20260901191536 24 329 3.2 6.4 0.00 0.05 0.05 70 1016.1
20260901191431 24 331 1.6 6.4 0.00 0.05 0.05 69 1016.1
20260901191332 24 355 1.6 6.4 0.00 0.05 0.05 69 1016.1
20260901191222 24 355 0.0 6.4 0.00 0.05 0.05 67 1016.1
20260901191155 24 355 0.0 6.4 0.00 0.05 0.05 67 1016.1
20260901191108 24 355 0.0 6.4 0.00 0.05 0.05 66 1016.1
20260901191030 24 355 0.0 6.4 0.00 0.05 0.05 67 1016.1
20260901190834 24 355 3.2 6.4 0.00 0.05 0.05 66 1016.1
20260901190735 24 13 3.2 4.8 0.00 0.05 0.05 68 1016.1
20260901190640 24 360 1.6 4.8 0.00 0.05 0.05 69 1016.1
20260901190601 24 233 0.0 4.8 0.00 0.05 0.05 67 1016.1
20260901190409 24 213 1.6 4.8 0.00 0.05 0.05 67 1016.2
20260901190329 24 115 1.6 6.4 0.00 0.05 0.05 68 1016.2
20260901190157 24 107 3.2 6.4 0.00 0.05 0.05 68 1016.1
20260901190119 24 115 3.2 6.4 0.00 0.05 0.05 70 1016.1
20260901190039 24 135 3.2 6.4 0.00 0.05 0.05 68 1016.1
20260901185920 24 126 1.6 6.4 0.00 0.05 0.05 70 1016.1
20260901185821 24 84 1.6 6.4 0.00 0.05 0.05 67 1016.2
20260901185652 24 101 1.6 8.0 0.00 0.05 0.05 69 1016.2
20260901185616 24 153 3.2 8.0 0.00 0.05 0.05 71 1016.2
20260901185426 24 166 4.8 8.0 0.00 0.05 0.05 68 1016.2
20260901185341 24 155 6.4 8.0 0.00 0.05 0.05 69 1016.2
20260901185129 24 171 4.8 8.0 0.00 0.05 0.05 67 1016.2
20260901185048 24 184 4.8 8.0 0.00 0.05 0.05 68 1016.2
20260901184918 24 206 4.8 8.0 0.00 0.05 0.05 69 1016.2
20260901184840 24 193 6.4 8.0 0.00 0.05 0.05 69 1016.2
20260901184623 24 172 4.8 9.7 0.00 0.05 0.05 67 1016.2
20260901184545 24 197 3.2 8.0 0.00 0.05 0.05 69 1016.2
20260901184448 24 149 0.0 6.4 0.00 0.05 0.05 71 1016.2
20260901184347 24 109 1.6 6.4 0.00 0.05 0.05 71 1016.2
20260901184308 24 109 1.6 6.4 0.00 0.05 0.05 71 1016.2
20260901184209 24 109 1.6 6.4 0.00 0.05 0.05 71 1016.2
20260901184131 24 113 3.2 6.4 0.00 0.05 0.05 69 1016.2
20260901184000 24 157 3.2 6.4 0.00 0.05 0.05 70 1016.2
20260901183920 24 146 3.2 8.0 0.00 0.05 0.05 70 1016.2
20260901183800 24 40 0.0 8.0 0.00 0.05 0.05 70 1016.2
20260901183722 24 69 0.0 8.0 0.00 0.05 0.05 69 1016.2
20260901183525 23 69 1.6 8.0 0.00 0.05 0.05 70 1016.2
20260901183446 23 69 1.6 8.0 0.00 0.05 0.05 70 1016.2
20260901183330 23 29 3.2 8.0 0.00 0.05 0.05 69 1016.2
20260901183251 23 29 4.8 8.0 0.00 0.05 0.05 69 1016.3
20260901183211 23 17 4.8 8.0 0.00 0.05 0.05 69 1016.2
20260901183115 23 15 4.8 8.0 0.00 0.05 0.05 68 1016.3
20260901183037 23 342 1.6 6.4 0.00 0.05 0.05 68 1016.3
20260901182906 23 36 1.6 6.4 0.00 0.05 0.05 70 1016.2
20260901182825 23 36 1.6 6.4 0.00 0.05 0.05 68 1016.2
20260901182635 23 14 3.2 6.4 0.00 0.05 0.05 71 1016.3
20260901182550 23 360 3.2 6.4 0.00 0.05 0.05 70 1016.3
20260901182338 23 58 1.6 4.8 0.00 0.05 0.05 70 1016.3
20260901182241 23 140 0.0 4.8 0.00 0.05 0.05 71 1016.2
20260901182112 23 140 1.6 9.7 0.00 0.05 0.05 69 1016.3
20260901182012 23 140 1.6 9.7 0.00 0.05 0.05 69 1016.3
20260901181934 23 101 1.6 9.7 0.00 0.05 0.05 69 1016.3
20260901181815 23 101 1.6 9.7 0.00 0.05 0.05 68 1016.4
20260901181737 23 101 1.6 9.7 0.00 0.05 0.05 69 1016.4
20260901181606 23 111 1.6 9.7 0.00 0.05 0.05 72 1016.4
20260901181527 23 111 3.2 9.7 0.00 0.05 0.05 72 1016.4
20260901181336 23 113 3.2 9.7 0.00 0.05 0.05 70 1016.4
20260901181250 23 105 3.2 8.0 0.00 0.05 0.05 70 1016.4
20260901181120 23 57 4.8 8.0 0.00 0.05 0.05 68 1016.4
20260901181042 23 74 4.8 8.0 0.00 0.05 0.05 69 1016.4
20260901180907 23 85 4.8 6.4 0.00 0.05 0.05 70 1016.4
20260901180828 23 57 4.8 6.4 0.00 0.05 0.05 71 1016.4
20260901180639 23 59 3.2 6.4 0.00 0.05 0.05 71 1016.4
20260901180532 23 96 1.6 6.4 0.00 0.05 0.05 69 1016.5
20260901180453 23 96 1.6 6.4 0.00 0.05 0.05 70 1016.4
20260901180359 23 96 3.2 6.4 0.00 0.05 0.05 69 1016.5
20260901180321 23 96 3.2 6.4 0.00 0.05 0.05 69 1016.5
20260901180125 23 99 3.2 6.4 0.00 0.05 0.05 71 1016.6
20260901180026 23 96 3.2 6.4 0.00 0.05 0.05 69 1016.6
20260901175930 23 107 3.2 4.8 0.00 0.05 0.05 68 1016.6
20260901175852 23 97 3.2 4.8 0.00 0.05 0.05 70 1016.6
20260901175721 23 101 1.6 4.8 0.00 0.05 0.05 71 1016.6
20260901175615 23 94 0.0 3.2 0.00 0.05 0.05 69 1016.6
20260901175444 23 65 0.0 0.0 0.00 0.05 0.05 68 1016.6
20260901175404 23 65 0.0 3.2 0.00 0.05 0.05 70 1016.6
20260901175305 23 65 0.0 3.2 0.00 0.05 0.05 69 1016.6
20260901175210 23 65 0.0 3.2 0.00 0.05 0.05 70 1016.6
20260901175132 23 65 0.0 6.4 0.00 0.05 0.05 70 1016.6
20260901174935 23 65 0.0 6.4 0.00 0.05 0.05 70 1016.6
20260901174836 23 65 0.0 6.4 0.00 0.05 0.05 70 1016.6
20260901174738 23 53 0.0 6.4 0.00 0.05 0.05 69 1016.6
20260901174628 23 53 0.0 6.4 0.00 0.05 0.05 68 1016.6
20260901174532 23 53 1.6 6.4 0.00 0.05 0.05 68 1016.6
20260901174452 23 53 3.2 6.4 0.00 0.05 0.05 69 1016.6
20260901174413 23 53 3.2 6.4 0.00 0.05 0.05 69 1016.6
20260901174315 23 53 3.2 6.4 0.00 0.05 0.05 68 1016.6
20260901174241 23 56 3.2 6.4 0.00 0.05 0.05 69 1016.6
20260901174110 23 360 1.6 6.4 0.00 0.05 0.05 70 1016.6
20260901174024 23 348 3.2 6.4 0.00 0.05 0.05 69 1016.6
20260901173834 23 338 3.2 6.4 0.00 0.05 0.05 71 1016.6
20260901173745 23 350 3.2 6.4 0.00 0.05 0.05 70 1016.6
20260901173629 23 355 3.2 8.0 0.00 0.05 0.05 71 1016.6
20260901173549 23 355 1.6 8.0 0.00 0.05 0.05 71 1016.6
20260901173510 23 332 1.6 8.0 0.00 0.05 0.05 69 1016.6
20260901173414 23 332 3.2 8.0 0.00 0.05 0.05 69 1016.6
20260901173337 23 332 3.2 8.0 0.00 0.05 0.05 69 1016.6
20260901173206 23 324 3.2 8.0 0.00 0.05 0.05 70 1016.6
20260901173119 23 339 3.2 8.0 0.00 0.05 0.05 71 1016.6
20260901172933 23 12 4.8 8.0 0.00 0.05 0.05 68 1016.6
20260901172849 23 344 6.4 8.0 0.00 0.05 0.05 70 1016.6
20260901172636 23 339 4.8 6.4 0.00 0.05 0.05 70 1016.6
20260901172551 23 346 3.2 6.4 0.00 0.05 0.05 70 1016.6
20260901172421 23 328 0.0 3.2 0.00 0.05 0.05 70 1016.6
20260901172343 23 165 1.6 3.2 0.00 0.05 0.05 70 1016.6
20260901172125 23 165 1.6 3.2 0.00 0.05 0.05 70 1016.6
20260901172045 23 130 1.6 3.2 0.00 0.05 0.05 70 1016.5
20260901171930 23 130 1.6 3.2 0.00 0.05 0.05 69 1016.5
20260901171855 23 130 1.6 3.2 0.00 0.05 0.05 71 1016.5
20260901171725 23 128 1.6 3.2 0.00 0.05 0.05 71 1016.6
20260901171619 23 128 1.6 3.2 0.00 0.05 0.05 71 1016.6
20260901171429 23 128 1.6 3.2 0.00 0.05 0.05 72 1016.5
20260901171345 23 128 1.6 3.2 0.00 0.05 0.05 71 1016.6
20260901171133 22 128 0.0 3.2 0.00 0.05 0.05 72 1016.5
20260901171027 22 128 0.0 3.2 0.00 0.05 0.05 72 1016.6
20260901170959 22 128 0.0 4.8 0.00 0.05 0.05 72 1016.5
20260901170827 22 128 0.0 4.8 0.00 0.05 0.05 75 1016.5
20260901170741 22 128 0.0 6.4 0.00 0.05 0.05 74 1016.5
20260901170549 22 128 1.6 6.4 0.00 0.05 0.05 75 1016.6
20260901170511 22 128 1.6 6.4 0.00 0.05 0.05 74 1016.6
20260901170412 22 161 1.6 6.4 0.00 0.05 0.05 71 1016.6
20260901170313 22 148 1.6 6.4 0.00 0.05 0.05 72 1016.6
20260901170214 22 178 3.2 6.4 0.00 0.05 0.05 71 1016.6
20260901170115 22 188 3.2 6.4 0.00 0.05 0.05 72 1016.7
20260901170020 22 190 4.8 6.4 0.00 0.05 0.05 72 1016.7
20260901165941 22 188 4.8 6.4 0.00 0.05 0.05 71 1016.7
20260901165811 22 194 4.8 6.4 0.00 0.05 0.05 72 1016.7
20260901165725 22 192 4.8 6.4 0.00 0.05 0.05 74 1016.7
20260901165554 22 165 3.2 6.4 0.00 0.05 0.05 73 1016.7
20260901165520 22 173 4.8 6.4 0.00 0.05 0.05 73 1016.7
20260901165323 22 174 3.2 8.0 0.00 0.05 0.05 75 1016.7
20260901165243 22 194 3.2 8.0 0.00 0.05 0.05 75 1016.7
20260901165127 22 149 1.6 8.0 0.00 0.05 0.05 73 1016.7
20260901165048 22 153 1.6 8.0 0.00 0.05 0.05 73 1016.7
20260901165009 22 159 3.2 8.0 0.00 0.05 0.05 72 1016.7
20260901164851 22 159 4.8 8.0 0.00 0.05 0.05 73 1016.7
20260901164811 22 167 4.8 8.0 0.00 0.05 0.05 72 1016.7
20260901164732 22 148 6.4 8.0 0.00 0.05 0.05 72 1016.7
20260901164613 22 159 4.8 9.7 0.00 0.05 0.05 73 1016.7
20260901164536 22 159 3.2 8.0 0.00 0.05 0.05 73 1016.7
20260901164347 22 248 3.2 4.8 0.00 0.05 0.05 73 1016.7
20260901164242 22 239 3.2 4.8 0.00 0.05 0.05 74 1016.7
20260901164110 22 207 1.6 4.8 0.00 0.05 0.05 74 1016.8
20260901164033 22 223 1.6 4.8 0.00 0.05 0.05 74 1016.8
20260901163854 22 194 0.0 4.8 0.00 0.05 0.05 73 1016.7
20260901163734 22 200 0.0 4.8 0.00 0.05 0.05 72 1016.7
20260901163656 22 200 1.6 6.4 0.00 0.05 0.05 73 1016.8
20260901163610 22 200 1.6 8.0 0.00 0.05 0.05 72 1016.8
20260901163418 22 209 1.6 8.0 0.00 0.05 0.05 72 1016.8
20260901163318 22 209 1.6 8.0 0.00 0.05 0.05 73 1016.8
20260901163201 22 209 1.6 8.0 0.00 0.05 0.05 73 1016.8
20260901163124 22 201 1.6 8.0 0.00 0.05 0.05 74 1016.8
20260901162957 22 196 3.2 8.0 0.00 0.05 0.05 73 1016.9
20260901162851 22 207 4.8 8.0 0.00 0.05 0.05 74 1016.9
20260901162719 22 205 4.8 8.0 0.00 0.05 0.05 72 1016.9
20260901162642 22 230 4.8 6.4 0.00 0.05 0.05 73 1016.9
20260901162512 22 221 3.2 6.4 0.00 0.05 0.05 74 1016.9
20260901162426 22 248 3.2 6.4 0.00 0.05 0.05 73 1016.9
20260901162257 22 232 4.8 6.4 0.00 0.05 0.05 73 1016.9
20260901162218 22 193 4.8 6.4 0.00 0.05 0.05 73 1016.9
20260901162042 22 167 3.2 8.0 0.00 0.05 0.05 72 1016.8
20260901161943 22 188 3.2 8.0 0.00 0.05 0.05 72 1016.9
20260901161846 22 172 1.6 8.0 0.00 0.05 0.05 73 1016.8
20260901161808 22 234 1.6 8.0 0.00 0.05 0.05 72 1016.9
20260901161620 22 234 1.6 8.0 0.00 0.05 0.05 72 1016.8
20260901161536 22 242 1.6 8.0 0.00 0.05 0.05 71 1016.8
20260901161404 22 200 3.2 8.0 0.00 0.05 0.05 72 1016.9
20260901161326 22 206 4.8 8.0 0.00 0.05 0.05 71 1016.9
20260901161129 22 237 1.6 6.4 0.00 0.05 0.05 72 1016.9
20260901161049 22 237 1.6 6.4 0.00 0.05 0.05 72 1016.9
20260901160944 22 237 1.6 6.4 0.00 0.05 0.05 73 1016.9
20260901160854 22 236 1.6 6.4 0.00 0.05 0.05 71 1016.9
20260901160816 22 236 1.6 6.4 0.00 0.05 0.05 71 1016.9
20260901160721 22 237 1.6 6.4 0.00 0.05 0.05 71 1016.9
20260901160642 22 246 1.6 6.4 0.00 0.05 0.05 71 1016.9
20260901160516 22 267 1.6 6.4 0.00 0.05 0.05 70 1016.9
20260901160430 22 267 3.2 6.4 0.00 0.05 0.05 69 1016.9
20260901160259 22 273 1.6 6.4 0.00 0.05 0.05 70 1016.8
20260901160220 22 273 1.6 6.4 0.00 0.05 0.05 70 1016.8
20260901160042 22 307 3.2 6.4 0.00 0.05 0.05 71 1016.8
20260901155943 22 163 3.2 6.4 0.00 0.05 0.05 70 1016.8
20260901155827 22 206 3.2 6.4 0.00 0.05 0.05 70 1016.9
20260901155747 22 225 3.2 6.4 0.00 0.05 0.05 70 1016.8
20260901155709 22 223 1.6 6.4 0.00 0.05 0.05 70 1016.9
20260901155552 22 223 1.6 6.4 0.00 0.05 0.05 69 1016.8
20260901155515 22 223 3.2 6.4 0.00 0.05 0.05 69 1016.8
20260901155349 22 252 3.2 6.4 0.00 0.05 0.05 70 1016.8
20260901155242 22 242 1.6 6.4 0.00 0.05 0.05 70 1016.8
20260901155112 22 92 0.0 4.8 0.00 0.05 0.05 74 1016.7
20260901155034 22 92 1.6 4.8 0.00 0.05 0.05 71 1016.7
20260901154836 22 61 1.6 6.4 0.00 0.05 0.05 70 1016.8
20260901154757 22 55 0.0 6.4 0.00 0.05 0.05 70 1016.8
20260901154638 22 355 1.6 6.4 0.00 0.05 0.05 71 1016.8
20260901154601 22 355 1.6 6.4 0.00 0.05 0.05 70 1016.7
20260901154340 22 355 3.2 6.4 0.00 0.05 0.05 71 1016.8
20260901154244 22 355 3.2 6.4 0.00 0.05 0.05 73 1016.8
20260901154128 22 336 4.8 6.4 0.00 0.05 0.05 73 1016.8
20260901154049 22 338 4.8 6.4 0.00 0.05 0.05 73 1016.9
20260901153954 22 355 1.6 4.8 0.00 0.05 0.05 72 1016.9
20260901153904 22 90 1.6 4.8 0.00 0.05 0.05 71 1016.9
20260901153712 22 106 1.6 4.8 0.00 0.05 0.05 72 1016.9
20260901153628 22 106 1.6 4.8 0.00 0.05 0.05 72 1016.9
20260901153437 22 106 1.6 4.8 0.00 0.05 0.05 70 1016.9
20260901153331 22 106 3.2 4.8 0.00 0.05 0.05 70 1016.9
20260901153251 22 106 3.2 4.8 0.00 0.05 0.05 70 1016.9
20260901153137 22 134 1.6 4.8 0.00 0.05 0.05 72 1016.9
20260901153058 22 144 3.2 4.8 0.00 0.05 0.05 71 1017.0
20260901153001 22 150 3.2 4.8 0.00 0.05 0.05 72 1016.9
20260901152922 21 155 3.2 6.4 0.00 0.05 0.05 73 1016.9
20260901152724 21 205 0.0 0.0 0.00 0.05 0.05 71 1016.8
20260901152625 21 205 0.0 0.0 0.00 0.05 0.05 71 1016.8
20260901152528 21 205 0.0 0.0 0.00 0.05 0.05 71 1016.8
20260901152429 21 205 0.0 0.0 0.00 0.05 0.05 70 1016.8
20260901152351 21 205 0.0 0.0 0.00 0.05 0.05 70 1016.9
20260901152258 21 205 0.0 0.0 0.00 0.05 0.05 71 1016.8
20260901152140 21 205 0.0 0.0 0.00 0.05 0.05 70 1016.9
20260901152042 21 202 0.0 0.0 0.00 0.05 0.05 73 1016.9
20260901151944 21 202 0.0 0.0 0.00 0.05 0.05 74 1016.9
20260901151825 21 350 0.0 0.0 0.00 0.05 0.05 74 1017.0
20260901151746 21 350 0.0 0.0 0.00 0.05 0.05 74 1017.0
20260901151616 21 55 0.0 0.0 0.00 0.05 0.05 75 1017.1
20260901151530 21 292 0.0 0.0 0.00 0.05 0.05 75 1017.1
20260901151340 21 255 0.0 0.0 0.00 0.05 0.05 74 1017.0
20260901151238 21 190 0.0 6.4 0.00 0.05 0.05 75 1017.0
20260901151123 21 188 0.0 6.4 0.00 0.05 0.05 76 1016.9
20260901151025 21 165 0.0 6.4 0.00 0.05 0.05 75 1016.8
20260901150947 21 165 0.0 8.0 0.00 0.05 0.05 75 1016.7
20260901150849 21 169 0.0 8.0 0.00 0.05 0.05 77 1016.7
20260901150748 21 169 0.0 8.0 0.00 0.05 0.05 76 1016.7
20260901150709 21 165 0.0 8.0 0.00 0.05 0.05 78 1016.6
20260901150612 21 171 0.0 8.0 0.00 0.05 0.05 78 1016.6
20260901150533 21 143 1.6 8.0 0.00 0.05 0.05 77 1016.6
20260901150403 21 195 3.2 8.0 0.00 0.05 0.05 77 1016.8
20260901150257 21 194 4.8 8.0 0.00 0.05 0.05 77 1016.8
20260901150130 21 192 4.8 9.7 0.00 0.05 0.05 78 1016.9
20260901150032 21 189 4.8 9.7 0.00 0.05 0.05 77 1016.9
20260901145834 21 167 3.2 6.4 0.00 0.05 0.05 79 1016.8
20260901145755 21 134 3.2 6.4 0.00 0.05 0.05 79 1016.9
20260901145637 21 185 1.6 6.4 0.00 0.05 0.05 78 1016.9
20260901145559 21 175 0.0 6.4 0.00 0.05 0.05 78 1016.9
20260901145408 21 175 3.2 6.4 0.00 0.05 0.05 77 1016.9
20260901145323 21 175 3.2 6.4 0.00 0.05 0.05 78 1016.9
20260901145134 21 165 3.2 4.8 0.00 0.05 0.05 79 1016.8
20260901145050 21 192 1.6 4.8 0.00 0.05 0.05 79 1016.8
20260901144923 20 119 3.2 4.8 0.00 0.05 0.05 79 1016.7
20260901144823 20 131 1.6 4.8 0.00 0.05 0.05 80 1016.7
20260901144704 20 134 0.0 0.0 0.00 0.05 0.05 80 1016.7
20260901144626 20 138 0.0 0.0 0.00 0.05 0.05 79 1016.7
20260901144428 20 150 0.0 1.6 0.00 0.05 0.05 78 1016.8
20260901144330 20 143 0.0 4.8 0.00 0.05 0.05 79 1016.8
20260901144224 20 170 0.0 4.8 0.00 0.05 0.05 79 1016.8
20260901144144 20 170 0.0 4.8 0.00 0.05 0.05 80 1016.8
20260901144107 20 165 0.0 4.8 0.00 0.05 0.05 80 1016.9
20260901143948 20 140 0.0 4.8 0.00 0.05 0.05 79 1016.9
20260901143913 20 140 0.0 4.8 0.00 0.05 0.05 80 1016.8
20260901143650 20 140 1.6 4.8 0.00 0.05 0.05 80 1016.8
20260901143544 20 140 3.2 4.8 0.00 0.05 0.05 81 1016.9
20260901143413 20 143 3.2 4.8 0.00 0.05 0.05 82 1016.9
20260901143336 20 153 3.2 6.4 0.00 0.05 0.05 80 1016.9
20260901143137 20 164 3.2 6.4 0.00 0.05 0.05 80 1016.9
20260901143058 20 163 3.2 4.8 0.00 0.05 0.05 80 1016.9
20260901142923 20 153 1.6 4.8 0.00 0.05 0.05 81 1017.0
20260901142838 20 180 1.6 4.8 0.00 0.05 0.05 82 1017.0
20260901142707 20 155 1.6 4.8 0.00 0.05 0.05 83 1017.0
20260901142633 20 148 0.0 4.8 0.00 0.05 0.05 83 1017.0
20260901142503 20 148 0.0 4.8 0.00 0.05 0.05 82 1017.0
20260901142336 20 148 0.0 4.8 0.00 0.05 0.05 81 1017.1
20260901142259 20 148 1.6 4.8 0.00 0.05 0.05 81 1017.0
20260901142201 20 148 1.6 4.8 0.00 0.05 0.05 81 1017.1
20260901142041 20 148 3.2 4.8 0.00 0.05 0.05 82 1017.0
20260901141945 20 130 3.2 4.8 0.00 0.05 0.05 83 1017.0
20260901141905 20 132 3.2 4.8 0.00 0.05 0.05 81 1017.0
20260901141736 20 142 1.6 4.8 0.00 0.05 0.05 85 1017.0
20260901141630 19 184 1.6 4.8 0.00 0.05 0.05 83 1017.0
20260901141459 19 259 3.2 4.8 0.00 0.05 0.05 84 1017.0
20260901141425 19 257 3.2 4.8 0.00 0.05 0.05 84 1017.0
20260901141226 19 319 0.0 1.6 0.00 0.05 0.05 84 1017.1
20260901141146 19 319 0.0 1.6 0.00 0.05 0.05 86 1017.1
20260901141031 19 329 0.0 1.6 0.00 0.05 0.05 86 1017.1
20260901140953 18 343 0.0 1.6 0.00 0.05 0.05 87 1017.1
20260901140812 18 328 0.0 1.6 0.00 0.05 0.05 88 1017.0
20260901140726 18 292 0.0 1.6 0.00 0.05 0.05 91 1017.0
20260901140538 18 15 0.0 0.0 0.00 0.05 0.05 90 1017.0
20260901140451 18 333 0.0 0.0 0.00 0.05 0.05 90 1017.0
20260901140321 18 317 0.0 0.0 0.00 0.05 0.05 89 1017.0
20260901140246 18 329 0.0 0.0 0.00 0.05 0.05 89 1017.0
20260901140108 18 338 0.0 0.0 0.00 0.05 0.05 90 1017.0
20260901140031 18 325 0.0 0.0 0.00 0.05 0.05 90 1017.0
20260901135859 18 336 0.0 0.0 0.00 0.05 0.05 90 1016.8
20260901135821 18 330 0.0 0.0 0.00 0.05 0.05 90 1016.8
20260901135736 17 332 0.0 0.0 0.00 0.05 0.05 90 1016.8
20260901135604 17 335 0.0 0.0 0.00 0.05 0.05 89 1016.7
20260901135527 17 282 0.0 0.0 0.00 0.05 0.05 89 1016.7
20260901135328 17 282 0.0 1.6 0.00 0.05 0.05 89 1016.7
20260901135250 17 282 0.0 1.6 0.00 0.05 0.05 90 1016.6
20260901135132 17 282 0.0 1.6 0.00 0.05 0.05 90 1016.6
20260901135059 17 282 0.0 1.6 0.00 0.05 0.05 91 1016.6
20260901134840 17 282 0.0 3.2 0.00 0.05 0.05 89 1016.6
20260901134802 17 282 0.0 3.2 0.00 0.05 0.05 89 1016.6
20260901134704 17 323 0.0 3.2 0.00 0.05 0.05 90 1016.6
20260901134627 17 342 0.0 4.8 0.00 0.05 0.05 90 1016.6
20260901134428 17 347 0.0 6.4 0.00 0.05 0.05 91 1016.7
20260901134330 17 347 0.0 6.4 0.00 0.05 0.05 91 1016.8
20260901134233 17 347 0.0 6.4 0.00 0.05 0.05 90 1016.8
20260901134133 17 347 0.0 6.4 0.00 0.05 0.05 90 1016.9
20260901134059 17 347 0.0 6.4 0.00 0.05 0.05 88 1016.9
20260901133942 17 347 1.6 6.4 0.00 0.05 0.05 90 1016.9
20260901133842 17 347 1.6 6.4 0.00 0.05 0.05 91 1016.9
20260901133755 17 345 4.8 6.4 0.00 0.05 0.05 91 1017.0
20260901133716 17 344 4.8 6.4 0.00 0.05 0.05 92 1017.0
20260901133454 17 331 4.8 6.4 0.00 0.05 0.05 92 1017.1
20260901133420 17 339 3.2 6.4 0.00 0.05 0.05 92 1017.1
20260901133228 17 321 3.2 4.8 0.00 0.05 0.05 91 1017.1
20260901133143 17 321 3.2 4.8 0.00 0.05 0.05 90 1017.1
20260901133013 17 355 1.6 3.2 0.00 0.05 0.05 92 1017.2
20260901132936 17 355 1.6 3.2 0.00 0.05 0.05 92 1017.2
20260901132723 17 187 0.0 3.2 0.00 0.05 0.05 91 1017.2
20260901132645 17 187 0.0 3.2 0.00 0.05 0.05 91 1017.2
20260901132549 17 187 0.0 3.2 0.00 0.05 0.05 91 1017.2
20260901132510 17 187 0.0 4.8 0.00 0.05 0.05 91 1017.2
20260901132340 16 187 0.0 4.8 0.00 0.05 0.05 92 1017.2
20260901132233 16 187 1.6 4.8 0.00 0.05 0.05 92 1017.2
20260901132042 16 187 1.6 4.8 0.00 0.05 0.05 92 1017.1
20260901131936 16 187 1.6 4.8 0.00 0.05 0.05 92 1017.1
20260901131824 16 187 1.6 4.8 0.00 0.05 0.05 92 1017.1
20260901131745 16 187 3.2 4.8 0.00 0.05 0.05 92 1017.2
20260901131706 16 187 3.2 4.8 0.00 0.05 0.05 92 1017.2
20260901131609 16 200 3.2 4.8 0.00 0.05 0.05 92 1017.2
20260901131531 16 200 3.2 4.8 0.00 0.05 0.05 92 1017.2
20260901131334 16 194 1.6 4.8 0.00 0.05 0.05 92 1017.2
20260901131236 16 194 1.6 4.8 0.00 0.05 0.05 92 1017.2
20260901131137 16 194 1.6 4.8 0.00 0.05 0.05 92 1017.2
20260901131058 16 194 1.6 4.8 0.00 0.05 0.05 92 1017.2
20260901131019 16 194 0.0 4.8 0.00 0.05 0.05 92 1017.2
20260901130919 16 220 0.0 1.6 0.00 0.05 0.05 92 1017.3
20260901130838 16 274 0.0 1.6 0.00 0.05 0.05 92 1017.3
20260901130627 16 274 0.0 3.2 0.00 0.05 0.05 94 1017.4
20260901130543 16 274 0.0 3.2 0.00 0.05 0.05 94 1017.5
20260901130413 16 274 0.0 3.2 0.00 0.05 0.05 94 1017.5
20260901130335 16 274 0.0 3.2 0.00 0.05 0.05 94 1017.5
20260901130140 16 274 0.0 4.8 0.00 0.05 0.05 94 1017.5
20260901130100 16 274 0.0 4.8 0.00 0.05 0.05 94 1017.5
20260901130003 16 274 0.0 4.8 0.00 0.05 0.05 94 1017.5
20260901125925 16 274 0.0 4.8 0.00 0.05 0.05 94 1017.5
20260901125745 16 274 0.0 6.4 0.00 0.05 0.05 95 1017.5
20260901125645 16 179 0.0 6.4 0.00 0.05 0.05 95 1017.4
20260901125552 16 179 1.6 6.4 0.00 0.05 0.05 95 1017.4
20260901125515 16 179 1.6 6.4 0.00 0.05 0.05 95 1017.3
20260901125345 16 179 3.2 6.4 0.00 0.05 0.05 94 1017.3
20260901125301 16 179 3.2 6.4 0.00 0.05 0.05 94 1017.3
20260901125129 16 188 3.2 6.4 0.00 0.05 0.05 94 1017.2
20260901125029 16 199 3.2 6.4 0.00 0.05 0.05 94 1017.2
20260901124853 16 199 3.2 8.0 0.00 0.05 0.05 94 1017.3
20260901124815 16 211 3.2 8.0 0.00 0.05 0.05 94 1017.3
20260901124627 16 321 1.6 8.0 0.00 0.05 0.05 93 1017.3
20260901124541 16 321 1.6 8.0 0.00 0.05 0.05 93 1017.3
20260901124411 16 338 1.6 8.0 0.00 0.05 0.05 94 1017.4
20260901124331 16 338 1.6 8.0 0.00 0.05 0.05 94 1017.4
20260901124138 16 345 4.8 8.0 0.00 0.05 0.05 94 1017.3
20260901124058 16 360 4.8 8.0 0.00 0.05 0.05 94 1017.3
20260901124003 16 333 3.2 6.4 0.00 0.05 0.05 95 1017.3
20260901123924 16 340 3.2 4.8 0.00 0.05 0.05 95 1017.3
20260901123753 16 41 1.6 4.8 0.00 0.05 0.05 95 1017.2
20260901123647 16 117 0.0 0.0 0.00 0.05 0.05 95 1017.2